DAL7 KLAX-RJTT

Flight info

Callsign DAL7
Flight time 11h 3m
Altitude 36000
Route SUMMR2 MCKEY DCT LIBBO DCT BRINY DCT BOARS DCT AMAKR DCT LINUZ DCT NATTE DCT ZANNG DCT 52N140W 53N150W/N0491F380 53N160W DCT ROBBN DCT 51N180W DCT CHIPT DCT 50N170E/N0489F400 DCT CUTEE DCT KALIG KALNA OTR5 ADNAP Y807 POLIX POLI1D
Aircraft A359/H-SDE2E3GHIJ1J3J4J5LM1ORWXY/LB1D1

Departure

Time 2026-05-07 14:34
Airport Los Angeles International Airport (KLAX)

Arrival

Time 2026-05-08 01:37
Airport Tokyo Haneda International Airport (RJTT)
Time Latitude Longitude Altitude Speed Heading
2026-05-07 13:34 33.94540 -118.41009 99 ft 0 kts 263°
2026-05-07 14:24 33.94543 -118.40982 101 ft 4 kts 263°
2026-05-07 14:24 33.94545 -118.40956 101 ft 4 kts 276°
2026-05-07 14:24 33.94537 -118.40927 99 ft 4 kts 314°
2026-05-07 14:25 33.94516 -118.40909 101 ft 4 kts 336°
2026-05-07 14:25 33.94532 -118.40915 102 ft 0 kts 354°
2026-05-07 14:28 33.94534 -118.40916 99 ft 1 kts 354°
2026-05-07 14:28 33.94558 -118.40912 99 ft 6 kts 12°
2026-05-07 14:29 33.94610 -118.40897 100 ft 9 kts 360°
2026-05-07 14:29 33.94673 -118.40904 102 ft 9 kts 354°
2026-05-07 14:29 33.94738 -118.40898 99 ft 10 kts 20°
2026-05-07 14:29 33.94802 -118.40881 101 ft 9 kts 19°
2026-05-07 14:30 33.94836 -118.40825 101 ft 8 kts 70°
2026-05-07 14:30 33.94847 -118.40752 103 ft 9 kts 83°
2026-05-07 14:30 33.94855 -118.40671 103 ft 10 kts 83°
2026-05-07 14:30 33.94864 -118.40582 102 ft 11 kts 83°
2026-05-07 14:31 33.94874 -118.40484 104 ft 12 kts 83°
2026-05-07 14:31 33.94885 -118.40379 102 ft 13 kts 83°
2026-05-07 14:31 33.94896 -118.40269 100 ft 14 kts 82°
2026-05-07 14:31 33.94908 -118.40153 100 ft 14 kts 84°
2026-05-07 14:32 33.94918 -118.40031 102 ft 15 kts 83°
2026-05-07 14:32 33.94936 -118.39951 101 ft 9 kts 64°
2026-05-07 14:32 33.94986 -118.39914 101 ft 9 kts
2026-05-07 14:32 33.95035 -118.39943 101 ft 8 kts 299°
2026-05-07 14:33 33.95037 -118.40006 102 ft 9 kts 265°
2026-05-07 14:33 33.95013 -118.40252 104 ft 60 kts 263°
2026-05-07 14:33 33.94934 -118.41011 103 ft 121 kts 263°
2026-05-07 14:33 33.94809 -118.42234 123 ft 170 kts 263°
2026-05-07 14:34 33.94689 -118.43598 839 ft 159 kts 263°
2026-05-07 14:34 33.94553 -118.44911 1374 ft 158 kts 262°
2026-05-07 14:34 33.94413 -118.46245 1661 ft 162 kts 263°
2026-05-07 14:34 33.94300 -118.47611 1973 ft 165 kts 267°
2026-05-07 14:35 33.94259 -118.49000 2241 ft 169 kts 268°
2026-05-07 14:35 33.94229 -118.50425 2560 ft 170 kts 269°
2026-05-07 14:35 33.94177 -118.51839 2912 ft 169 kts 266°
2026-05-07 14:35 33.94065 -118.53258 3133 ft 177 kts 265°
2026-05-07 14:36 33.93935 -118.54787 3287 ft 190 kts 265°
2026-05-07 14:36 33.93803 -118.56426 3468 ft 204 kts 265°
2026-05-07 14:36 33.93662 -118.58193 3612 ft 220 kts 265°
2026-05-07 14:36 33.93512 -118.60088 3819 ft 235 kts 265°
2026-05-07 14:37 33.93352 -118.62101 4035 ft 249 kts 265°
2026-05-07 14:37 33.93016 -118.66430 4694 ft 266 kts 265°
2026-05-07 14:37 33.92841 -118.68661 5169 ft 269 kts 265°
2026-05-07 14:38 33.92663 -118.70916 5648 ft 272 kts 266°
2026-05-07 14:38 33.92486 -118.73186 6134 ft 273 kts 266°
2026-05-07 14:38 33.92307 -118.75474 6605 ft 276 kts 266°
2026-05-07 14:38 33.92126 -118.77788 7037 ft 279 kts 266°
2026-05-07 14:39 33.91942 -118.80125 7474 ft 282 kts 266°
2026-05-07 14:39 33.91764 -118.82483 7921 ft 284 kts 267°
2026-05-07 14:39 33.91739 -118.84865 8362 ft 286 kts 272°
2026-05-07 14:39 33.91805 -118.87273 8777 ft 289 kts 273°
2026-05-07 14:40 33.91881 -118.89700 9201 ft 292 kts 273°
2026-05-07 14:40 33.91957 -118.92155 9601 ft 295 kts 273°
2026-05-07 14:40 33.92031 -118.94596 9996 ft 299 kts 273°
2026-05-07 14:40 33.92106 -118.97130 10252 ft 308 kts 273°
2026-05-07 14:41 33.92194 -118.99757 10423 ft 320 kts 275°
2026-05-07 14:41 33.92688 -119.02399 10558 ft 329 kts 296°
2026-05-07 14:41 33.93811 -119.04840 10767 ft 338 kts 303°
2026-05-07 14:41 33.95086 -119.07273 10950 ft 349 kts 304°
2026-05-07 14:42 33.96407 -119.09783 11141 ft 360 kts 304°
2026-05-07 14:42 33.97758 -119.12369 11303 ft 370 kts 303°
2026-05-07 14:42 33.99140 -119.15030 11490 ft 379 kts 303°
2026-05-07 14:42 34.00608 -119.17696 11778 ft 383 kts 310°
2026-05-07 14:43 34.02506 -119.19926 12173 ft 382 kts 324°
2026-05-07 14:43 34.04647 -119.21823 12573 ft 382 kts 327°
2026-05-07 14:43 34.06826 -119.23677 12980 ft 384 kts 327°
2026-05-07 14:43 34.09010 -119.25535 13382 ft 385 kts 327°
2026-05-07 14:44 34.11202 -119.27409 13773 ft 387 kts 326°
2026-05-07 14:44 34.13397 -119.29291 14162 ft 388 kts 326°
2026-05-07 14:44 34.15593 -119.31179 14537 ft 389 kts 326°
2026-05-07 14:44 34.17779 -119.33062 14898 ft 391 kts 326°
2026-05-07 14:45 34.19997 -119.34973 15262 ft 393 kts 326°
2026-05-07 14:45 34.22253 -119.36918 15643 ft 394 kts 326°
2026-05-07 14:45 34.24487 -119.38847 16009 ft 395 kts 326°
2026-05-07 14:45 34.26728 -119.40784 16368 ft 397 kts 326°
2026-05-07 14:46 34.28949 -119.42705 16733 ft 398 kts 326°
2026-05-07 14:46 34.31205 -119.44657 17072 ft 400 kts 326°
2026-05-07 14:46 34.33472 -119.46618 17416 ft 401 kts 326°
2026-05-07 14:46 34.35746 -119.48589 17743 ft 403 kts 326°
2026-05-07 14:47 34.38058 -119.50593 18090 ft 404 kts 326°
2026-05-07 14:47 34.40287 -119.52596 18415 ft 406 kts 322°
2026-05-07 14:47 34.42334 -119.54979 18697 ft 410 kts 314°
2026-05-07 14:47 34.44239 -119.57616 19031 ft 412 kts 312°
2026-05-07 14:48 34.46076 -119.60231 19306 ft 414 kts 312°
2026-05-07 14:48 34.47941 -119.62890 19552 ft 416 kts 312°
2026-05-07 14:48 34.49819 -119.65567 19883 ft 417 kts 312°
2026-05-07 14:48 34.51699 -119.68244 20198 ft 417 kts 312°
2026-05-07 14:49 34.53586 -119.70932 20459 ft 419 kts 312°
2026-05-07 14:49 34.55484 -119.73631 20718 ft 421 kts 312°
2026-05-07 14:49 34.57386 -119.76340 20994 ft 422 kts 312°
2026-05-07 14:49 34.59295 -119.79060 21237 ft 424 kts 312°
2026-05-07 14:50 34.61207 -119.81787 21475 ft 425 kts 312°
2026-05-07 14:50 34.63128 -119.84528 21733 ft 427 kts 312°
2026-05-07 14:50 34.65055 -119.87279 21950 ft 429 kts 312°
2026-05-07 14:50 34.66986 -119.90038 22204 ft 430 kts 312°
2026-05-07 14:51 34.68921 -119.92807 22447 ft 431 kts 312°
2026-05-07 14:51 34.70862 -119.95586 22690 ft 432 kts 312°
2026-05-07 14:51 34.72812 -119.98379 22889 ft 433 kts 312°
2026-05-07 14:51 34.74763 -120.01177 23106 ft 435 kts 311°
2026-05-07 14:52 34.76723 -120.03988 23327 ft 436 kts 311°
2026-05-07 14:52 34.78683 -120.06804 23572 ft 437 kts 311°
2026-05-07 14:52 34.80650 -120.09632 23819 ft 438 kts 311°
2026-05-07 14:52 34.82622 -120.12466 24021 ft 440 kts 311°
2026-05-07 14:53 34.84602 -120.15317 24226 ft 441 kts 311°
2026-05-07 14:53 34.86585 -120.18174 24437 ft 443 kts 311°
2026-05-07 14:53 34.88576 -120.21045 24644 ft 444 kts 311°
2026-05-07 14:53 34.90571 -120.23923 24845 ft 446 kts 311°
2026-05-07 14:54 34.92575 -120.26817 25052 ft 447 kts 311°
2026-05-07 14:54 34.94584 -120.29721 25253 ft 449 kts 311°
2026-05-07 14:54 34.96594 -120.32630 25469 ft 450 kts 311°
2026-05-07 14:54 34.98613 -120.35554 25673 ft 451 kts 311°
2026-05-07 14:55 35.00638 -120.38488 25890 ft 452 kts 311°
2026-05-07 14:55 35.02664 -120.41427 26122 ft 453 kts 311°
2026-05-07 14:55 35.04694 -120.44373 26313 ft 455 kts 311°
2026-05-07 14:55 35.06731 -120.47335 26521 ft 456 kts 311°
2026-05-07 14:56 35.08773 -120.50303 26729 ft 457 kts 311°
2026-05-07 14:56 35.10814 -120.53273 26923 ft 459 kts 311°
2026-05-07 14:56 35.12873 -120.56270 27126 ft 460 kts 311°
2026-05-07 14:56 35.14904 -120.59231 27352 ft 461 kts 311°
2026-05-07 14:57 35.16988 -120.62272 27582 ft 462 kts 311°
2026-05-07 14:57 35.19053 -120.65288 27779 ft 463 kts 311°
2026-05-07 14:57 35.21122 -120.68313 27973 ft 464 kts 311°
2026-05-07 14:57 35.23196 -120.71348 28172 ft 466 kts 311°
2026-05-07 14:58 35.25247 -120.74351 28378 ft 467 kts 311°
2026-05-07 14:58 35.27331 -120.77403 28583 ft 469 kts 311°
2026-05-07 14:58 35.29423 -120.80470 28804 ft 469 kts 311°
2026-05-07 14:58 35.31515 -120.83541 29013 ft 470 kts 311°
2026-05-07 14:59 35.33612 -120.86622 29184 ft 472 kts 311°
2026-05-07 14:59 35.35715 -120.89714 29372 ft 473 kts 311°
2026-05-07 14:59 35.37819 -120.92811 29560 ft 474 kts 311°
2026-05-07 14:59 35.39927 -120.95918 29775 ft 474 kts 311°
2026-05-07 15:00 35.42040 -120.99034 29957 ft 476 kts 311°
2026-05-07 15:00 35.44155 -121.02156 30110 ft 477 kts 311°
2026-05-07 15:00 35.46278 -121.05294 30282 ft 478 kts 311°
2026-05-07 15:00 35.48405 -121.08440 30471 ft 479 kts 311°
2026-05-07 15:01 35.50544 -121.11576 30676 ft 479 kts 312°
2026-05-07 15:01 35.52710 -121.14698 30852 ft 480 kts 312°
2026-05-07 15:01 35.54889 -121.17813 31015 ft 481 kts 312°
2026-05-07 15:01 35.57073 -121.20935 31177 ft 482 kts 312°
2026-05-07 15:02 35.59253 -121.24058 31438 ft 481 kts 312°
2026-05-07 15:02 35.61420 -121.27174 31683 ft 480 kts 312°
2026-05-07 15:02 35.63583 -121.30292 31908 ft 479 kts 312°
2026-05-07 15:02 35.65738 -121.33404 32152 ft 477 kts 312°
2026-05-07 15:03 35.67886 -121.36510 32379 ft 476 kts 312°
2026-05-07 15:03 35.70030 -121.39616 32590 ft 476 kts 311°
2026-05-07 15:03 35.72170 -121.42718 32795 ft 475 kts 311°
2026-05-07 15:03 35.74305 -121.45817 32980 ft 474 kts 311°
2026-05-07 15:04 35.76408 -121.48870 33187 ft 474 kts 311°
2026-05-07 15:04 35.78538 -121.51960 33436 ft 472 kts 311°
2026-05-07 15:04 35.80656 -121.55041 33640 ft 471 kts 311°
2026-05-07 15:04 35.82773 -121.58124 33819 ft 471 kts 311°
2026-05-07 15:05 35.84883 -121.61202 34010 ft 470 kts 311°
2026-05-07 15:05 35.86991 -121.64278 34205 ft 469 kts 311°
2026-05-07 15:05 35.89096 -121.67352 34341 ft 469 kts 311°
2026-05-07 15:05 35.91201 -121.70427 34517 ft 469 kts 311°
2026-05-07 15:06 35.93304 -121.73502 34683 ft 468 kts 311°
2026-05-07 15:06 35.95401 -121.76572 34847 ft 468 kts 311°
2026-05-07 15:06 35.97524 -121.79605 35003 ft 467 kts 314°
2026-05-07 15:06 35.99053 -121.81472 35096 ft 466 kts 319°
2026-05-07 15:07 36.02504 -121.84687 35289 ft 465 kts 329°
2026-05-07 15:07 36.04355 -121.86004 35375 ft 464 kts 331°
2026-05-07 15:07 36.07202 -121.87890 35519 ft 464 kts 332°
2026-05-07 15:07 36.10077 -121.89706 35657 ft 464 kts 333°
2026-05-07 15:08 36.12965 -121.91490 35794 ft 464 kts 333°
2026-05-07 15:08 36.15849 -121.93264 35936 ft 463 kts 333°
2026-05-07 15:08 36.18734 -121.95046 36069 ft 463 kts 333°
2026-05-07 15:08 36.21614 -121.96835 36158 ft 464 kts 333°
2026-05-07 15:09 36.27404 -122.00456 36166 ft 469 kts 333°
2026-05-07 15:09 36.33230 -122.04115 36164 ft 470 kts 333°
2026-05-07 15:10 36.39057 -122.07787 36165 ft 470 kts 333°
2026-05-07 15:10 36.44881 -122.11463 36166 ft 470 kts 333°
2026-05-07 15:11 36.50713 -122.15145 36165 ft 470 kts 333°
2026-05-07 15:11 36.56549 -122.18836 36166 ft 471 kts 333°
2026-05-07 15:12 36.62385 -122.22531 36164 ft 471 kts 333°
2026-05-07 15:12 36.68175 -122.26206 36166 ft 471 kts 333°
2026-05-07 15:13 36.74015 -122.29923 36166 ft 471 kts 332°
2026-05-07 15:13 36.79856 -122.33644 36164 ft 471 kts 332°
2026-05-07 15:14 36.85697 -122.37370 36163 ft 472 kts 332°
2026-05-07 15:14 36.91543 -122.41105 36165 ft 472 kts 332°
2026-05-07 15:15 36.97386 -122.44845 36174 ft 472 kts 332°
2026-05-07 15:15 37.03234 -122.48597 36176 ft 473 kts 333°
2026-05-07 15:16 37.09082 -122.52354 36174 ft 473 kts 332°
2026-05-07 15:16 37.14948 -122.56128 36174 ft 476 kts 332°
2026-05-07 15:17 37.20845 -122.59929 36187 ft 477 kts 332°
2026-05-07 15:17 37.26742 -122.63739 36182 ft 477 kts 332°
2026-05-07 15:18 37.32762 -122.67265 36183 ft 478 kts 337°
2026-05-07 15:18 37.38887 -122.70380 36182 ft 478 kts 338°
2026-05-07 15:19 37.45077 -122.73461 36187 ft 479 kts 338°
2026-05-07 15:19 37.51277 -122.76548 36185 ft 479 kts 338°
2026-05-07 15:20 37.57473 -122.79647 36184 ft 479 kts 338°
2026-05-07 15:20 37.63666 -122.82757 36183 ft 479 kts 338°
2026-05-07 15:21 37.69852 -122.85871 36181 ft 479 kts 338°
2026-05-07 15:21 37.76047 -122.88992 36186 ft 479 kts 338°
2026-05-07 15:22 37.82242 -122.92121 36175 ft 479 kts 338°
2026-05-07 15:22 37.88438 -122.95255 36173 ft 479 kts 337°
2026-05-07 15:23 37.94633 -122.98394 36174 ft 479 kts 337°
2026-05-07 15:23 38.00829 -123.01538 36180 ft 480 kts 337°
2026-05-07 15:24 38.07033 -123.04694 36184 ft 481 kts 337°
2026-05-07 15:24 38.13248 -123.07860 36175 ft 481 kts 337°
2026-05-07 15:25 38.19465 -123.11035 36177 ft 482 kts 337°
2026-05-07 15:25 38.25423 -123.14898 36173 ft 481 kts 328°
2026-05-07 15:26 38.31134 -123.19352 36175 ft 482 kts 327°
2026-05-07 15:26 38.36810 -123.23904 36173 ft 482 kts 327°
2026-05-07 15:27 38.42479 -123.28466 36174 ft 482 kts 327°
2026-05-07 15:27 38.48162 -123.33027 36174 ft 483 kts 327°
2026-05-07 15:28 38.53845 -123.37591 36173 ft 483 kts 327°
2026-05-07 15:28 38.59528 -123.42164 36175 ft 483 kts 327°
2026-05-07 15:29 38.65210 -123.46745 36174 ft 483 kts 327°
2026-05-07 15:29 38.70892 -123.51335 36173 ft 483 kts 327°
2026-05-07 15:30 38.76446 -123.55830 36173 ft 483 kts 327°
2026-05-07 15:30 38.82127 -123.60432 36175 ft 483 kts 327°
2026-05-07 15:31 38.87806 -123.65049 36172 ft 484 kts 327°
2026-05-07 15:31 38.93491 -123.69682 36177 ft 484 kts 327°
2026-05-07 15:32 38.99092 -123.74271 36173 ft 484 kts 325°
2026-05-07 15:32 39.04507 -123.79413 36171 ft 484 kts 322°
2026-05-07 15:33 39.09856 -123.84672 36175 ft 484 kts 322°
2026-05-07 15:33 39.15190 -123.89960 36176 ft 484 kts 321°
2026-05-07 15:34 39.20521 -123.95249 36172 ft 484 kts 322°
2026-05-07 15:34 39.25863 -124.00551 36174 ft 485 kts 322°
2026-05-07 15:35 39.31160 -124.05813 36174 ft 486 kts 321°
2026-05-07 15:35 39.36513 -124.11145 36176 ft 487 kts 321°
2026-05-07 15:36 39.41875 -124.16497 36175 ft 487 kts 321°
2026-05-07 15:36 39.47233 -124.21856 36177 ft 487 kts 321°
2026-05-07 15:37 39.52593 -124.27226 36173 ft 487 kts 321°
2026-05-07 15:37 39.57952 -124.32608 36174 ft 487 kts 321°
2026-05-07 15:38 39.63310 -124.37999 36182 ft 487 kts 321°
2026-05-07 15:38 39.68665 -124.43398 36187 ft 487 kts 321°
2026-05-07 15:39 39.74017 -124.48802 36187 ft 487 kts 321°
2026-05-07 15:39 39.79365 -124.54217 36181 ft 487 kts 321°
2026-05-07 15:40 39.84707 -124.59636 36186 ft 487 kts 321°
2026-05-07 15:40 39.90052 -124.65068 36184 ft 487 kts 321°
2026-05-07 15:41 39.95137 -124.70246 36183 ft 487 kts 321°
2026-05-07 15:41 40.00474 -124.75691 36185 ft 488 kts 321°
2026-05-07 15:42 40.05809 -124.81147 36181 ft 488 kts 321°
2026-05-07 15:42 40.11121 -124.86588 36179 ft 488 kts 321°
2026-05-07 15:43 40.16463 -124.92069 36189 ft 488 kts 321°
2026-05-07 15:43 40.21802 -124.97562 36195 ft 488 kts 321°
2026-05-07 15:44 40.27142 -125.03067 36195 ft 489 kts 321°
2026-05-07 15:44 40.32483 -125.08586 36188 ft 489 kts 321°
2026-05-07 15:45 40.37815 -125.14107 36195 ft 489 kts 321°
2026-05-07 15:45 40.43154 -125.19647 36190 ft 489 kts 321°
2026-05-07 15:46 40.51157 -125.27970 36180 ft 489 kts 321°
2026-05-07 15:47 40.56491 -125.33528 36183 ft 489 kts 321°
2026-05-07 15:47 40.61815 -125.39094 36181 ft 489 kts 321°
2026-05-07 15:48 40.67147 -125.44679 36180 ft 489 kts 320°
2026-05-07 15:48 40.72477 -125.50271 36184 ft 490 kts 320°
2026-05-07 15:49 40.77805 -125.55870 36183 ft 489 kts 320°
2026-05-07 15:49 40.83121 -125.61472 36187 ft 489 kts 320°
2026-05-07 15:50 40.88439 -125.67086 36182 ft 489 kts 320°
2026-05-07 15:50 40.93756 -125.72716 36181 ft 490 kts 320°
2026-05-07 15:51 40.99070 -125.78353 36185 ft 489 kts 320°
2026-05-07 15:51 41.04381 -125.83996 36186 ft 490 kts 320°
2026-05-07 15:52 41.09657 -125.89611 36185 ft 490 kts 320°
2026-05-07 15:52 41.14962 -125.95275 36184 ft 489 kts 320°
2026-05-07 15:53 41.20257 -126.00941 36182 ft 489 kts 320°
2026-05-07 15:53 41.25554 -126.06621 36182 ft 489 kts 321°
2026-05-07 15:54 41.30840 -126.12296 36185 ft 488 kts 321°
2026-05-07 15:54 41.36122 -126.17980 36181 ft 488 kts 320°
2026-05-07 15:55 41.41397 -126.23675 36186 ft 488 kts 320°
2026-05-07 15:55 41.45781 -126.28416 36185 ft 488 kts 320°
2026-05-07 15:56 41.51087 -126.34159 36183 ft 488 kts 320°
2026-05-07 15:56 41.56311 -126.39828 36185 ft 488 kts 320°
2026-05-07 15:57 41.61574 -126.45553 36182 ft 488 kts 320°
2026-05-07 15:57 41.66698 -126.51491 36183 ft 487 kts 315°
2026-05-07 15:58 41.71513 -126.57870 36183 ft 487 kts 314°
2026-05-07 15:58 41.76277 -126.64326 36186 ft 487 kts 314°
2026-05-07 15:59 41.81031 -126.70796 36189 ft 487 kts 314°
2026-05-07 15:59 41.85782 -126.77263 36195 ft 486 kts 314°
2026-05-07 16:00 41.90519 -126.83722 36191 ft 485 kts 314°
2026-05-07 16:00 41.95206 -126.90109 36193 ft 485 kts 314°
2026-05-07 16:01 41.99944 -126.96556 36190 ft 484 kts 314°
2026-05-07 16:01 42.04666 -127.03002 36195 ft 483 kts 314°
2026-05-07 16:02 42.09371 -127.09449 36188 ft 482 kts 313°
2026-05-07 16:02 42.14064 -127.15898 36189 ft 482 kts 314°
2026-05-07 16:03 42.18749 -127.22343 36195 ft 481 kts 313°
2026-05-07 16:03 42.23395 -127.28749 36189 ft 481 kts 313°
2026-05-07 16:04 42.28067 -127.35206 36195 ft 481 kts 313°
2026-05-07 16:04 42.32733 -127.41672 36195 ft 480 kts 313°
2026-05-07 16:05 42.37390 -127.48137 36188 ft 480 kts 313°
2026-05-07 16:05 42.42038 -127.54606 36195 ft 479 kts 313°
2026-05-07 16:06 42.46682 -127.61086 36195 ft 479 kts 313°
2026-05-07 16:06 42.51324 -127.67573 36228 ft 479 kts 313°
2026-05-07 16:07 42.55959 -127.74068 36230 ft 479 kts 313°
2026-05-07 16:07 42.60584 -127.80563 36232 ft 479 kts 313°
2026-05-07 16:08 42.65210 -127.87076 36239 ft 479 kts 313°
2026-05-07 16:08 42.69830 -127.93596 36239 ft 479 kts 313°
2026-05-07 16:09 42.74447 -128.00123 36239 ft 479 kts 313°
2026-05-07 16:09 42.79055 -128.06656 36238 ft 478 kts 312°
2026-05-07 16:10 42.83650 -128.13182 36237 ft 477 kts 312°
2026-05-07 16:10 42.88236 -128.19709 36238 ft 477 kts 312°
2026-05-07 16:11 42.92818 -128.26248 36238 ft 477 kts 311°
2026-05-07 16:11 42.97390 -128.32789 36238 ft 476 kts 311°
2026-05-07 16:12 43.01961 -128.39345 36242 ft 476 kts 311°
2026-05-07 16:12 43.06525 -128.45901 36239 ft 476 kts 311°
2026-05-07 16:13 43.11083 -128.52468 36238 ft 476 kts 311°
2026-05-07 16:13 43.15605 -128.58994 36239 ft 475 kts 311°
2026-05-07 16:14 43.20148 -128.65570 36239 ft 475 kts 311°
2026-05-07 16:14 43.24687 -128.72151 36238 ft 475 kts 311°
2026-05-07 16:15 43.29221 -128.78746 36239 ft 475 kts 311°
2026-05-07 16:15 43.33743 -128.85337 36238 ft 474 kts 310°
2026-05-07 16:16 43.38270 -128.91946 36239 ft 475 kts 310°
2026-05-07 16:16 43.42791 -128.98562 36220 ft 474 kts 310°
2026-05-07 16:17 43.47307 -129.05189 36211 ft 475 kts 310°
2026-05-07 16:17 43.51824 -129.11834 36211 ft 475 kts 310°
2026-05-07 16:18 43.56331 -129.18473 36202 ft 475 kts 310°
2026-05-07 16:18 43.60835 -129.25131 36201 ft 474 kts 310°
2026-05-07 16:19 43.65334 -129.31796 36202 ft 474 kts 310°
2026-05-07 16:19 43.69823 -129.38464 36201 ft 474 kts 310°
2026-05-07 16:20 43.74315 -129.45147 36202 ft 474 kts 309°
2026-05-07 16:20 43.78802 -129.51839 36202 ft 474 kts 309°
2026-05-07 16:21 43.83292 -129.58551 36220 ft 474 kts 309°
2026-05-07 16:21 43.87737 -129.65213 36220 ft 474 kts 309°
2026-05-07 16:22 43.92213 -129.71940 36220 ft 474 kts 309°
2026-05-07 16:22 43.96684 -129.78673 36221 ft 474 kts 309°
2026-05-07 16:23 44.01153 -129.85416 36220 ft 474 kts 309°
2026-05-07 16:23 44.05612 -129.92167 36220 ft 474 kts 309°
2026-05-07 16:24 44.10296 -129.98648 36222 ft 478 kts 318°
2026-05-07 16:24 44.15562 -130.04330 36225 ft 479 kts 319°
2026-05-07 16:25 44.20914 -130.09886 36229 ft 480 kts 320°
2026-05-07 16:25 44.26279 -130.15440 36230 ft 480 kts 320°
2026-05-07 16:26 44.31635 -130.21016 36229 ft 480 kts 319°
2026-05-07 16:26 44.36984 -130.26611 36229 ft 480 kts 319°
2026-05-07 16:27 44.42334 -130.32224 36229 ft 481 kts 319°
2026-05-07 16:27 44.47684 -130.37847 36229 ft 481 kts 319°
2026-05-07 16:28 44.53035 -130.43488 36229 ft 481 kts 319°
2026-05-07 16:28 44.58388 -130.49144 36230 ft 482 kts 319°
2026-05-07 16:29 44.63744 -130.54816 36230 ft 482 kts 319°
2026-05-07 16:29 44.69096 -130.60495 36222 ft 483 kts 319°
2026-05-07 16:30 44.74455 -130.66196 36220 ft 483 kts 319°
2026-05-07 16:30 44.79817 -130.71917 36221 ft 484 kts 318°
2026-05-07 16:31 44.85144 -130.77609 36220 ft 484 kts 318°
2026-05-07 16:31 44.90504 -130.83354 36220 ft 484 kts 318°
2026-05-07 16:32 44.95865 -130.89114 36220 ft 484 kts 318°
2026-05-07 16:32 45.01225 -130.94886 36220 ft 485 kts 318°
2026-05-07 16:33 45.06590 -131.00675 36220 ft 485 kts 318°
2026-05-07 16:33 45.11950 -131.06474 36220 ft 485 kts 318°
2026-05-07 16:34 45.17316 -131.12293 36220 ft 486 kts 318°
2026-05-07 16:34 45.22681 -131.18128 36220 ft 486 kts 317°
2026-05-07 16:35 45.28045 -131.23972 36240 ft 486 kts 317°
2026-05-07 16:35 45.33409 -131.29831 36238 ft 486 kts 317°
2026-05-07 16:36 45.38770 -131.35706 36239 ft 486 kts 317°
2026-05-07 16:36 45.44132 -131.41595 36239 ft 487 kts 317°
2026-05-07 16:37 45.49500 -131.47502 36238 ft 488 kts 317°
2026-05-07 16:37 45.54859 -131.53415 36238 ft 488 kts 317°
2026-05-07 16:38 45.60227 -131.59352 36239 ft 488 kts 317°
2026-05-07 16:38 45.65595 -131.65305 36238 ft 488 kts 317°
2026-05-07 16:39 45.70959 -131.71268 36244 ft 489 kts 316°
2026-05-07 16:39 45.76323 -131.77247 36247 ft 488 kts 316°
2026-05-07 16:40 45.81684 -131.83237 36250 ft 489 kts 316°
2026-05-07 16:40 45.87009 -131.89202 36238 ft 489 kts 316°
2026-05-07 16:41 45.92366 -131.95216 36238 ft 489 kts 316°
2026-05-07 16:41 45.97727 -132.01248 36239 ft 489 kts 316°
2026-05-07 16:42 46.03083 -132.07289 36238 ft 489 kts 316°
2026-05-07 16:42 46.08435 -132.13346 36238 ft 489 kts 316°
2026-05-07 16:43 46.13783 -132.19416 36238 ft 489 kts 316°
2026-05-07 16:43 46.19129 -132.25495 36238 ft 489 kts 316°
2026-05-07 16:44 46.23570 -132.30556 36238 ft 490 kts 316°
2026-05-07 16:44 46.28914 -132.36665 36238 ft 490 kts 316°
2026-05-07 16:45 46.34263 -132.42794 36238 ft 491 kts 316°
2026-05-07 16:45 46.39615 -132.48938 36247 ft 491 kts 316°
2026-05-07 16:46 46.44963 -132.55094 36249 ft 492 kts 316°
2026-05-07 16:46 46.50318 -132.61276 36250 ft 492 kts 316°
2026-05-07 16:47 46.55676 -132.67479 36238 ft 493 kts 316°
2026-05-07 16:47 46.61041 -132.73703 36248 ft 493 kts 316°
2026-05-07 16:48 46.66410 -132.79946 36257 ft 494 kts 316°
2026-05-07 16:48 46.71778 -132.86209 36257 ft 495 kts 316°
2026-05-07 16:49 46.77144 -132.92485 36257 ft 495 kts 316°
2026-05-07 16:49 46.82526 -132.98795 36257 ft 496 kts 316°
2026-05-07 16:50 46.87895 -133.05106 36257 ft 496 kts 316°
2026-05-07 16:50 46.93272 -133.11445 36257 ft 497 kts 316°
2026-05-07 16:51 46.98656 -133.17809 36265 ft 497 kts 316°
2026-05-07 16:51 47.04033 -133.24181 36266 ft 497 kts 316°
2026-05-07 16:52 47.09401 -133.30559 36266 ft 497 kts 315°
2026-05-07 16:52 47.14769 -133.36954 36266 ft 497 kts 315°
2026-05-07 16:53 47.20137 -133.43369 36266 ft 498 kts 315°
2026-05-07 16:53 47.25506 -133.49800 36266 ft 498 kts 316°
2026-05-07 16:54 47.30836 -133.56201 36266 ft 498 kts 315°
2026-05-07 16:54 47.36197 -133.62657 36266 ft 497 kts 315°
2026-05-07 16:55 47.41557 -133.69130 36266 ft 498 kts 315°
2026-05-07 16:55 47.46919 -133.75623 36266 ft 498 kts 315°
2026-05-07 16:56 47.52269 -133.82117 36266 ft 498 kts 315°
2026-05-07 16:56 47.60294 -133.91896 36266 ft 498 kts 315°
2026-05-07 16:57 47.65643 -133.98435 36266 ft 499 kts 315°
2026-05-07 16:57 47.70994 -134.04993 36266 ft 499 kts 315°
2026-05-07 16:58 47.76345 -134.11572 36266 ft 499 kts 315°
2026-05-07 16:58 47.81695 -134.18164 36266 ft 499 kts 315°
2026-05-07 16:59 47.87040 -134.24771 36266 ft 499 kts 315°
2026-05-07 16:59 47.92379 -134.31390 36266 ft 499 kts 315°
2026-05-07 17:00 47.97709 -134.38015 36266 ft 499 kts 315°
2026-05-07 17:00 48.03042 -134.44663 36267 ft 499 kts 315°
2026-05-07 17:01 48.08371 -134.51323 36266 ft 499 kts 315°
2026-05-07 17:01 48.13693 -134.57995 36266 ft 499 kts 315°
2026-05-07 17:02 48.18980 -134.64638 36266 ft 500 kts 315°
2026-05-07 17:02 48.24300 -134.71347 36265 ft 500 kts 314°
2026-05-07 17:03 48.29619 -134.78073 36266 ft 500 kts 314°
2026-05-07 17:03 48.34942 -134.84820 36266 ft 501 kts 314°
2026-05-07 17:04 48.40259 -134.91579 36267 ft 501 kts 314°
2026-05-07 17:04 48.45580 -134.98365 36257 ft 501 kts 314°
2026-05-07 17:05 48.50904 -135.05172 36256 ft 502 kts 314°
2026-05-07 17:05 48.56232 -135.12001 36257 ft 503 kts 314°
2026-05-07 17:06 48.61562 -135.18849 36264 ft 503 kts 314°
2026-05-07 17:06 48.66892 -135.25720 36266 ft 504 kts 314°
2026-05-07 17:07 48.72220 -135.32611 36266 ft 504 kts 314°
2026-05-07 17:07 48.77538 -135.39507 36266 ft 504 kts 314°
2026-05-07 17:08 48.82864 -135.46433 36266 ft 504 kts 314°
2026-05-07 17:08 48.88137 -135.53313 36266 ft 504 kts 314°
2026-05-07 17:09 48.93447 -135.60260 36266 ft 504 kts 314°
2026-05-07 17:09 48.98751 -135.67222 36266 ft 503 kts 314°
2026-05-07 17:10 49.04050 -135.74196 36266 ft 503 kts 314°
2026-05-07 17:10 49.09343 -135.81181 36257 ft 503 kts 314°
2026-05-07 17:11 49.14634 -135.88181 36257 ft 503 kts 314°
2026-05-07 17:11 49.19917 -135.95194 36257 ft 503 kts 314°
2026-05-07 17:12 49.25192 -136.02218 36253 ft 502 kts 314°
2026-05-07 17:12 49.30434 -136.09223 36258 ft 505 kts 314°
2026-05-07 17:13 49.35727 -136.16314 36257 ft 505 kts 314°
2026-05-07 17:13 49.41017 -136.23416 36257 ft 505 kts 314°
2026-05-07 17:14 49.46300 -136.30530 36256 ft 505 kts 314°
2026-05-07 17:14 49.51572 -136.37655 36257 ft 504 kts 313°
2026-05-07 17:15 49.56838 -136.44791 36256 ft 504 kts 313°
2026-05-07 17:15 49.62099 -136.51943 36257 ft 504 kts 313°
2026-05-07 17:16 49.67367 -136.59124 36259 ft 506 kts 313°
2026-05-07 17:16 49.72620 -136.66319 36246 ft 505 kts 313°
2026-05-07 17:17 49.77876 -136.73530 36249 ft 505 kts 313°
2026-05-07 17:17 49.83136 -136.80763 36245 ft 505 kts 313°
2026-05-07 17:18 49.88387 -136.88007 36249 ft 506 kts 313°
2026-05-07 17:18 49.93644 -136.95280 36245 ft 507 kts 313°
2026-05-07 17:19 49.98902 -137.02581 36246 ft 507 kts 313°
2026-05-07 17:19 50.04151 -137.09888 36254 ft 505 kts 313°
2026-05-07 17:20 50.09350 -137.17146 36257 ft 502 kts 313°
2026-05-07 17:20 50.14538 -137.24417 36257 ft 502 kts 313°
2026-05-07 17:21 50.19725 -137.31712 36257 ft 502 kts 313°
2026-05-07 17:21 50.24913 -137.39032 36256 ft 503 kts 313°
2026-05-07 17:22 50.30105 -137.46373 36257 ft 503 kts 313°
2026-05-07 17:22 50.35293 -137.53735 36257 ft 504 kts 313°
2026-05-07 17:23 50.40482 -137.61116 36257 ft 504 kts 313°
2026-05-07 17:23 50.45669 -137.68511 36256 ft 504 kts 313°
2026-05-07 17:24 50.50849 -137.75932 36257 ft 504 kts 312°
2026-05-07 17:24 50.56021 -137.83362 36257 ft 504 kts 312°
2026-05-07 17:25 50.61188 -137.90805 36257 ft 503 kts 312°
2026-05-07 17:25 50.66346 -137.98255 36257 ft 503 kts 312°
2026-05-07 17:26 50.71493 -138.05718 36256 ft 503 kts 312°
2026-05-07 17:26 50.76640 -138.13204 36257 ft 503 kts 312°
2026-05-07 17:27 50.81781 -138.20704 36257 ft 503 kts 312°
2026-05-07 17:27 50.86912 -138.28211 36257 ft 502 kts 311°
2026-05-07 17:28 50.92031 -138.35722 36257 ft 501 kts 311°
2026-05-07 17:28 50.96277 -138.41977 36257 ft 501 kts 311°
2026-05-07 17:29 51.01372 -138.49500 36257 ft 500 kts 311°
2026-05-07 17:29 51.07290 -138.58266 36257 ft 499 kts 311°
2026-05-07 17:30 51.11539 -138.64581 36257 ft 499 kts 311°
2026-05-07 17:30 51.16610 -138.72137 36257 ft 499 kts 311°
2026-05-07 17:31 51.21673 -138.79710 36257 ft 499 kts 311°
2026-05-07 17:31 51.26731 -138.87298 36257 ft 499 kts 311°
2026-05-07 17:32 51.31788 -138.94904 36258 ft 499 kts 311°
2026-05-07 17:32 51.36832 -139.02521 36256 ft 498 kts 311°
2026-05-07 17:33 51.41868 -139.10145 36257 ft 498 kts 311°
2026-05-07 17:33 51.46893 -139.17774 36257 ft 498 kts 311°
2026-05-07 17:34 51.51916 -139.25430 36257 ft 498 kts 310°
2026-05-07 17:34 51.56940 -139.33113 36257 ft 499 kts 310°
2026-05-07 17:35 51.61959 -139.40812 36266 ft 498 kts 310°
2026-05-07 17:35 51.66934 -139.48464 36266 ft 498 kts 310°
2026-05-07 17:36 51.71935 -139.56182 36266 ft 498 kts 310°
2026-05-07 17:36 51.76930 -139.63919 36266 ft 498 kts 310°
2026-05-07 17:37 51.81914 -139.71655 36249 ft 497 kts 310°
2026-05-07 17:37 51.86890 -139.79410 36246 ft 496 kts 310°
2026-05-07 17:38 51.91857 -139.87177 36249 ft 496 kts 310°
2026-05-07 17:38 51.96723 -139.95093 36248 ft 492 kts 304°
2026-05-07 17:39 52.00275 -140.04303 36249 ft 475 kts 286°
2026-05-07 17:39 52.02158 -140.14428 36244 ft 467 kts 278°
2026-05-07 17:40 52.03633 -140.24689 36250 ft 466 kts 277°
2026-05-07 17:40 52.05054 -140.34969 36244 ft 466 kts 277°
2026-05-07 17:41 52.06486 -140.45237 36248 ft 466 kts 277°
2026-05-07 17:41 52.07925 -140.55505 36247 ft 466 kts 277°
2026-05-07 17:42 52.09340 -140.65643 36247 ft 465 kts 277°
2026-05-07 17:42 52.10764 -140.75899 36250 ft 465 kts 277°
2026-05-07 17:43 52.12177 -140.86158 36250 ft 465 kts 277°
2026-05-07 17:43 52.13578 -140.96405 36246 ft 464 kts 277°
2026-05-07 17:44 52.14972 -141.06670 36235 ft 464 kts 277°
2026-05-07 17:44 52.16358 -141.16950 36220 ft 465 kts 276°
2026-05-07 17:45 52.17733 -141.27229 36220 ft 465 kts 276°
2026-05-07 17:45 52.19102 -141.37539 36220 ft 466 kts 276°
2026-05-07 17:46 52.20467 -141.47873 36220 ft 467 kts 276°
2026-05-07 17:46 52.21816 -141.58161 36220 ft 467 kts 276°
2026-05-07 17:47 52.23166 -141.68538 36220 ft 468 kts 276°
2026-05-07 17:47 52.24507 -141.78931 36221 ft 469 kts 276°
2026-05-07 17:48 52.25843 -141.89346 36220 ft 469 kts 276°
2026-05-07 17:48 52.27169 -141.99781 36220 ft 470 kts 276°
2026-05-07 17:49 52.28487 -142.10229 36220 ft 470 kts 276°
2026-05-07 17:49 52.29797 -142.20675 36220 ft 469 kts 275°
2026-05-07 17:50 52.31096 -142.31128 36220 ft 469 kts 275°
2026-05-07 17:50 52.32385 -142.41579 36220 ft 469 kts 275°
2026-05-07 17:51 52.33665 -142.52023 36220 ft 468 kts 275°
2026-05-07 17:51 52.34930 -142.62450 36220 ft 467 kts 275°
2026-05-07 17:52 52.36186 -142.72884 36221 ft 467 kts 275°
2026-05-07 17:52 52.37433 -142.83308 36220 ft 467 kts 275°
2026-05-07 17:53 52.38673 -142.93730 36220 ft 466 kts 275°
2026-05-07 17:53 52.39898 -143.04155 36220 ft 466 kts 275°
2026-05-07 17:54 52.41109 -143.14520 36220 ft 466 kts 275°
2026-05-07 17:54 52.42325 -143.25037 36220 ft 467 kts 275°
2026-05-07 17:55 52.43517 -143.35432 36220 ft 468 kts 275°
2026-05-07 17:55 52.44718 -143.45986 36220 ft 468 kts 275°
2026-05-07 17:56 52.45904 -143.56475 36220 ft 469 kts 275°
2026-05-07 17:56 52.47084 -143.67005 36220 ft 470 kts 274°
2026-05-07 17:57 52.48058 -143.75777 36220 ft 470 kts 274°
2026-05-07 17:57 52.49418 -143.88123 36220 ft 471 kts 274°
2026-05-07 17:58 52.50567 -143.98628 36220 ft 471 kts 274°
2026-05-07 17:58 52.51712 -144.09213 36220 ft 471 kts 274°
2026-05-07 17:59 52.52848 -144.19815 36220 ft 471 kts 274°
2026-05-07 17:59 52.53972 -144.30397 36220 ft 471 kts 274°
2026-05-07 18:00 52.55087 -144.40986 36220 ft 470 kts 274°
2026-05-07 18:00 52.56193 -144.51573 36221 ft 470 kts 274°
2026-05-07 18:01 52.57288 -144.62148 36219 ft 469 kts 274°
2026-05-07 18:01 52.58372 -144.72718 36221 ft 469 kts 274°
2026-05-07 18:02 52.59979 -144.88576 36220 ft 468 kts 273°
2026-05-07 18:03 52.61038 -144.99146 36220 ft 468 kts 273°
2026-05-07 18:03 52.62087 -145.09725 36220 ft 468 kts 273°
2026-05-07 18:04 52.63119 -145.20228 36220 ft 468 kts 273°
2026-05-07 18:04 52.64148 -145.30819 36220 ft 468 kts 273°
2026-05-07 18:05 52.65172 -145.41422 36220 ft 470 kts 273°
2026-05-07 18:05 52.66189 -145.52053 36220 ft 470 kts 273°
2026-05-07 18:06 52.67195 -145.62692 36202 ft 471 kts 273°
2026-05-07 18:06 52.68192 -145.73357 36201 ft 471 kts 273°
2026-05-07 18:07 52.69181 -145.84025 36202 ft 471 kts 273°
2026-05-07 18:07 52.70160 -145.94691 36202 ft 471 kts 273°
2026-05-07 18:08 52.71130 -146.05386 36202 ft 472 kts 273°
2026-05-07 18:08 52.72092 -146.16083 36202 ft 471 kts 272°
2026-05-07 18:09 52.73044 -146.26784 36201 ft 472 kts 272°
2026-05-07 18:09 52.73986 -146.37482 36201 ft 471 kts 272°
2026-05-07 18:10 52.74919 -146.48163 36191 ft 470 kts 272°
2026-05-07 18:10 52.75836 -146.58838 36187 ft 469 kts 272°
2026-05-07 18:11 52.76741 -146.69499 36191 ft 469 kts 272°
2026-05-07 18:11 52.77640 -146.80160 36195 ft 469 kts 272°
2026-05-07 18:12 52.78528 -146.90799 36195 ft 468 kts 272°
2026-05-07 18:12 52.79400 -147.01378 36194 ft 467 kts 272°
2026-05-07 18:13 52.80266 -147.12021 36192 ft 467 kts 271°
2026-05-07 18:13 52.81121 -147.22651 36148 ft 467 kts 271°
2026-05-07 18:14 52.81968 -147.33292 36145 ft 467 kts 271°
2026-05-07 18:14 52.82806 -147.43934 36146 ft 467 kts 271°
2026-05-07 18:15 52.83633 -147.54590 36147 ft 467 kts 271°
2026-05-07 18:15 52.84453 -147.65260 36146 ft 468 kts 271°
2026-05-07 18:16 52.85263 -147.75930 36146 ft 467 kts 271°
2026-05-07 18:16 52.86064 -147.86633 36131 ft 472 kts 271°
2026-05-07 18:17 52.86865 -147.97506 36142 ft 480 kts 271°
2026-05-07 18:17 52.87541 -148.06739 36136 ft 484 kts 271°
2026-05-07 18:18 52.88342 -148.17775 36142 ft 482 kts 271°
2026-05-07 18:18 52.89132 -148.28804 36132 ft 482 kts 271°
2026-05-07 18:19 52.89910 -148.39825 36142 ft 481 kts 271°
2026-05-07 18:19 52.90669 -148.50765 36134 ft 481 kts 271°
2026-05-07 18:20 52.91423 -148.61786 36141 ft 482 kts 271°
2026-05-07 18:20 52.92157 -148.72635 36208 ft 481 kts 271°
2026-05-07 18:20 52.92526 -148.78123 36510 ft 477 kts 271°
2026-05-07 18:21 52.92889 -148.83571 36778 ft 475 kts 271°
2026-05-07 18:21 52.93246 -148.89005 36978 ft 473 kts 271°
2026-05-07 18:21 52.93600 -148.94423 37185 ft 472 kts 271°
2026-05-07 18:21 52.93945 -148.99733 37407 ft 470 kts 271°
2026-05-07 18:22 52.94293 -149.05116 37641 ft 467 kts 271°
2026-05-07 18:22 52.94526 -149.08729 37791 ft 466 kts 271°
2026-05-07 18:22 52.94977 -149.15795 38002 ft 465 kts 271°
2026-05-07 18:23 52.95647 -149.26473 38131 ft 467 kts 271°
2026-05-07 18:23 52.96311 -149.37244 38145 ft 471 kts 271°
2026-05-07 18:24 52.96972 -149.48070 38136 ft 472 kts 271°
2026-05-07 18:24 52.97625 -149.58898 38119 ft 471 kts 271°
2026-05-07 18:25 52.98274 -149.69782 38119 ft 471 kts 271°
2026-05-07 18:25 52.98901 -149.80523 38119 ft 471 kts 270°
2026-05-07 18:26 52.99519 -149.91340 38119 ft 471 kts 270°
2026-05-07 18:26 53.00128 -150.02167 38119 ft 471 kts 270°
2026-05-07 18:27 53.00607 -150.13012 38118 ft 471 kts 269°
2026-05-07 18:27 53.01013 -150.23874 38119 ft 471 kts 269°
2026-05-07 18:28 53.01421 -150.34751 38119 ft 472 kts 269°
2026-05-07 18:28 53.01837 -150.45627 38117 ft 472 kts 269°
2026-05-07 18:29 53.02248 -150.56485 38118 ft 471 kts 269°
2026-05-07 18:29 53.02648 -150.67341 38119 ft 471 kts 269°
2026-05-07 18:30 53.03037 -150.78208 38118 ft 471 kts 269°
2026-05-07 18:30 53.03414 -150.89063 38118 ft 470 kts 269°
2026-05-07 18:31 53.03786 -150.99914 38118 ft 470 kts 269°
2026-05-07 18:31 53.04145 -151.10781 38119 ft 471 kts 269°
2026-05-07 18:32 53.04496 -151.21668 38119 ft 472 kts 269°
2026-05-07 18:32 53.04835 -151.32554 38122 ft 471 kts 269°
2026-05-07 18:33 53.05167 -151.43431 38129 ft 471 kts 269°
2026-05-07 18:33 53.05493 -151.54304 38124 ft 471 kts 269°
2026-05-07 18:34 53.05799 -151.65115 38119 ft 471 kts 269°
2026-05-07 18:34 53.06097 -151.76000 38113 ft 471 kts 269°
2026-05-07 18:35 53.06388 -151.86875 38109 ft 471 kts 268°
2026-05-07 18:35 53.06673 -151.97751 38109 ft 471 kts 268°
2026-05-07 18:36 53.06948 -152.08623 38109 ft 472 kts 269°
2026-05-07 18:36 53.07208 -152.19532 38111 ft 472 kts 269°
2026-05-07 18:37 53.07457 -152.30448 38112 ft 472 kts 268°
2026-05-07 18:37 53.07694 -152.41358 38110 ft 472 kts 268°
2026-05-07 18:38 53.07926 -152.52273 38108 ft 473 kts 268°
2026-05-07 18:38 53.08148 -152.63212 38107 ft 473 kts 268°
2026-05-07 18:39 53.08365 -152.74153 38108 ft 473 kts 268°
2026-05-07 18:39 53.08566 -152.85086 38108 ft 473 kts 268°
2026-05-07 18:40 53.08755 -152.96018 38108 ft 473 kts 268°
2026-05-07 18:40 53.08935 -153.06955 38108 ft 473 kts 268°
2026-05-07 18:41 53.09109 -153.17904 38111 ft 473 kts 268°
2026-05-07 18:41 53.09270 -153.28790 38112 ft 474 kts 268°
2026-05-07 18:42 53.09427 -153.39839 38110 ft 475 kts 268°
2026-05-07 18:42 53.09571 -153.50768 38108 ft 475 kts 268°
2026-05-07 18:43 53.09704 -153.61763 38111 ft 475 kts 268°
2026-05-07 18:43 53.09827 -153.72768 38108 ft 475 kts 268°
2026-05-07 18:44 53.09939 -153.83758 38108 ft 475 kts 268°
2026-05-07 18:44 53.10041 -153.94761 38112 ft 476 kts 268°
2026-05-07 18:45 53.10129 -154.05765 38107 ft 475 kts 268°
2026-05-07 18:45 53.10210 -154.16773 38110 ft 476 kts 268°
2026-05-07 18:46 53.10282 -154.27805 38100 ft 477 kts 268°
2026-05-07 18:46 53.10346 -154.38828 38103 ft 476 kts 268°
2026-05-07 18:47 53.10397 -154.49856 38102 ft 477 kts 268°
2026-05-07 18:47 53.10437 -154.60905 38098 ft 477 kts 268°
2026-05-07 18:48 53.10467 -154.71960 38102 ft 478 kts 268°
2026-05-07 18:48 53.10488 -154.82995 38098 ft 477 kts 268°
2026-05-07 18:49 53.10500 -154.93969 38101 ft 478 kts 268°
2026-05-07 18:49 53.10500 -155.05024 38098 ft 478 kts 268°
2026-05-07 18:50 53.10490 -155.16065 38101 ft 477 kts 268°
2026-05-07 18:50 53.10468 -155.27126 38097 ft 478 kts 268°
2026-05-07 18:51 53.10439 -155.38179 38096 ft 478 kts 267°
2026-05-07 18:51 53.10400 -155.49242 38099 ft 478 kts 268°
2026-05-07 18:52 53.10350 -155.60311 38102 ft 478 kts 268°
2026-05-07 18:52 53.10288 -155.71389 38100 ft 479 kts 267°
2026-05-07 18:53 53.10215 -155.82473 38103 ft 479 kts 267°
2026-05-07 18:53 53.10134 -155.93554 38098 ft 479 kts 267°
2026-05-07 18:54 53.10042 -156.04625 38097 ft 479 kts 267°
2026-05-07 18:54 53.09939 -156.15718 38098 ft 480 kts 267°
2026-05-07 18:55 53.09827 -156.26815 38102 ft 480 kts 267°
2026-05-07 18:55 53.09704 -156.37920 38101 ft 480 kts 267°
2026-05-07 18:56 53.09569 -156.49016 38094 ft 480 kts 267°
2026-05-07 18:56 53.09425 -156.60109 38092 ft 480 kts 267°
2026-05-07 18:57 53.09272 -156.71200 38090 ft 479 kts 267°
2026-05-07 18:57 53.09107 -156.82292 38095 ft 480 kts 267°
2026-05-07 18:58 53.08933 -156.93392 38092 ft 480 kts 267°
2026-05-07 18:58 53.08749 -157.04489 38088 ft 480 kts 267°
2026-05-07 18:59 53.08553 -157.15579 38091 ft 480 kts 266°
2026-05-07 18:59 53.08347 -157.26678 38088 ft 480 kts 266°
2026-05-07 19:00 53.08130 -157.37776 38094 ft 480 kts 266°
2026-05-07 19:00 53.07905 -157.48800 38090 ft 480 kts 266°
2026-05-07 19:01 53.07669 -157.59901 38090 ft 480 kts 266°
2026-05-07 19:01 53.07422 -157.70999 38073 ft 480 kts 266°
2026-05-07 19:02 53.07165 -157.82077 38073 ft 480 kts 266°
2026-05-07 19:02 53.06897 -157.93198 38073 ft 481 kts 266°
2026-05-07 19:03 53.06619 -158.04307 38072 ft 481 kts 266°
2026-05-07 19:03 53.06329 -158.15423 38073 ft 482 kts 266°
2026-05-07 19:04 53.06028 -158.26542 38073 ft 482 kts 266°
2026-05-07 19:04 53.05769 -158.35786 38072 ft 482 kts 266°
2026-05-07 19:05 53.05452 -158.46911 38073 ft 482 kts 266°
2026-05-07 19:05 53.05123 -158.58049 38073 ft 482 kts 266°
2026-05-07 19:06 53.04782 -158.69177 38072 ft 482 kts 266°
2026-05-07 19:06 53.04255 -158.85876 38072 ft 483 kts 266°
2026-05-07 19:07 53.03889 -158.97011 38073 ft 483 kts 266°
2026-05-07 19:07 53.03515 -159.08089 38073 ft 484 kts 266°
2026-05-07 19:08 53.03125 -159.19238 38073 ft 483 kts 265°
2026-05-07 19:08 53.02728 -159.30378 38072 ft 483 kts 266°
2026-05-07 19:09 53.02320 -159.41530 38073 ft 484 kts 265°
2026-05-07 19:09 53.01899 -159.52690 38072 ft 484 kts 265°
2026-05-07 19:10 53.01469 -159.63848 38074 ft 484 kts 265°
2026-05-07 19:10 53.01030 -159.75002 38072 ft 484 kts 265°
2026-05-07 19:11 53.00583 -159.86153 38072 ft 484 kts 265°
2026-05-07 19:11 53.00120 -159.97304 38072 ft 485 kts 265°
2026-05-07 19:12 52.99596 -160.08468 38073 ft 486 kts 264°
2026-05-07 19:12 52.98929 -160.19623 38073 ft 486 kts 264°
2026-05-07 19:13 52.98248 -160.30715 38072 ft 486 kts 264°
2026-05-07 19:13 52.97575 -160.41871 38073 ft 486 kts 264°
2026-05-07 19:14 52.96903 -160.53032 38071 ft 486 kts 264°
2026-05-07 19:14 52.96222 -160.64188 38063 ft 486 kts 264°
2026-05-07 19:15 52.95532 -160.75324 38063 ft 486 kts 264°
2026-05-07 19:15 52.94826 -160.86507 38064 ft 487 kts 264°
2026-05-07 19:16 52.94110 -160.97675 38055 ft 487 kts 264°
2026-05-07 19:16 52.93386 -161.08840 38054 ft 488 kts 263°
2026-05-07 19:17 52.92646 -161.20012 38054 ft 488 kts 263°
2026-05-07 19:17 52.91900 -161.31188 38054 ft 488 kts 263°
2026-05-07 19:18 52.91140 -161.42351 38054 ft 488 kts 263°
2026-05-07 19:18 52.90370 -161.53522 38054 ft 489 kts 263°
2026-05-07 19:19 52.89590 -161.64700 38054 ft 489 kts 263°
2026-05-07 19:19 52.88798 -161.75875 38054 ft 489 kts 263°
2026-05-07 19:20 52.87997 -161.87043 38054 ft 488 kts 263°
2026-05-07 19:20 52.87185 -161.98214 38055 ft 489 kts 263°
2026-05-07 19:21 52.86361 -162.09394 38054 ft 489 kts 263°
2026-05-07 19:21 52.85527 -162.20554 38055 ft 489 kts 263°
2026-05-07 19:22 52.84680 -162.31722 38054 ft 489 kts 263°
2026-05-07 19:22 52.83831 -162.42819 38045 ft 490 kts 263°
2026-05-07 19:23 52.82962 -162.53997 38045 ft 490 kts 263°
2026-05-07 19:23 52.82085 -162.65183 38045 ft 491 kts 263°
2026-05-07 19:24 52.81197 -162.76374 38045 ft 491 kts 263°
2026-05-07 19:24 52.80297 -162.87563 38025 ft 491 kts 262°
2026-05-07 19:25 52.79386 -162.98754 38028 ft 491 kts 262°
2026-05-07 19:25 52.78463 -163.09939 38025 ft 492 kts 262°
2026-05-07 19:26 52.77529 -163.21123 38026 ft 492 kts 262°
2026-05-07 19:26 52.76583 -163.32312 38027 ft 492 kts 262°
2026-05-07 19:27 52.75630 -163.43497 38025 ft 492 kts 262°
2026-05-07 19:27 52.74665 -163.54685 38025 ft 493 kts 262°
2026-05-07 19:28 52.73688 -163.65881 38017 ft 493 kts 262°
2026-05-07 19:28 52.72699 -163.77076 38017 ft 493 kts 262°
2026-05-07 19:29 52.71699 -163.88270 38017 ft 493 kts 262°
2026-05-07 19:29 52.70694 -163.99390 38017 ft 493 kts 261°
2026-05-07 19:30 52.69672 -164.10564 38017 ft 494 kts 262°
2026-05-07 19:30 52.68641 -164.21751 38017 ft 494 kts 261°
2026-05-07 19:31 52.67600 -164.32944 38017 ft 494 kts 261°
2026-05-07 19:31 52.66548 -164.44120 38017 ft 494 kts 261°
2026-05-07 19:32 52.65485 -164.55299 38017 ft 494 kts 261°
2026-05-07 19:32 52.64409 -164.66457 38017 ft 494 kts 261°
2026-05-07 19:33 52.63320 -164.77623 38018 ft 494 kts 261°
2026-05-07 19:33 52.62224 -164.88803 38017 ft 495 kts 261°
2026-05-07 19:34 52.61119 -164.99982 38017 ft 495 kts 261°
2026-05-07 19:34 52.60001 -165.11159 38017 ft 495 kts 261°
2026-05-07 19:35 52.58870 -165.22343 38017 ft 496 kts 261°
2026-05-07 19:35 52.57728 -165.33518 38018 ft 496 kts 261°
2026-05-07 19:36 52.56576 -165.44704 38017 ft 497 kts 261°
2026-05-07 19:36 52.55411 -165.55893 38017 ft 497 kts 260°
2026-05-07 19:37 52.54235 -165.67087 38017 ft 498 kts 260°
2026-05-07 19:37 52.53046 -165.78295 38017 ft 498 kts 260°
2026-05-07 19:38 52.51847 -165.89489 38008 ft 498 kts 260°
2026-05-07 19:38 52.50638 -166.00692 38007 ft 498 kts 260°
2026-05-07 19:39 52.49422 -166.11817 38008 ft 499 kts 260°
2026-05-07 19:39 52.48187 -166.23018 38016 ft 499 kts 260°
2026-05-07 19:40 52.46945 -166.34213 38017 ft 499 kts 259°
2026-05-07 19:40 52.45688 -166.45400 38017 ft 498 kts 259°
2026-05-07 19:41 52.44423 -166.56573 38017 ft 499 kts 259°
2026-05-07 19:41 52.43148 -166.67739 38017 ft 498 kts 259°
2026-05-07 19:42 52.41863 -166.78898 38017 ft 498 kts 259°
2026-05-07 19:42 52.40568 -166.90050 38017 ft 498 kts 259°
2026-05-07 19:43 52.39262 -167.01195 38017 ft 498 kts 259°
2026-05-07 19:43 52.37948 -167.12320 38017 ft 498 kts 259°
2026-05-07 19:44 52.36618 -167.23451 38017 ft 499 kts 259°
2026-05-07 19:44 52.35283 -167.34574 38017 ft 499 kts 258°
2026-05-07 19:45 52.33945 -167.45631 38008 ft 499 kts 258°
2026-05-07 19:45 52.32584 -167.56767 38007 ft 499 kts 258°
2026-05-07 19:46 52.31211 -167.67905 38008 ft 500 kts 258°
2026-05-07 19:46 52.29825 -167.79043 38008 ft 501 kts 258°
2026-05-07 19:47 52.28429 -167.90194 38008 ft 501 kts 258°
2026-05-07 19:47 52.27023 -168.01328 38008 ft 501 kts 258°
2026-05-07 19:48 52.25603 -168.12467 38008 ft 501 kts 257°
2026-05-07 19:48 52.24174 -168.23606 38008 ft 502 kts 257°
2026-05-07 19:49 52.22735 -168.34737 38008 ft 502 kts 257°
2026-05-07 19:49 52.21284 -168.45858 38008 ft 501 kts 257°
2026-05-07 19:50 52.19823 -168.56977 38008 ft 501 kts 257°
2026-05-07 19:50 52.18354 -168.68076 38008 ft 501 kts 257°
2026-05-07 19:51 52.16877 -168.79146 38001 ft 500 kts 257°
2026-05-07 19:51 52.15388 -168.90214 37998 ft 500 kts 257°
2026-05-07 19:52 52.13897 -169.01204 37999 ft 501 kts 257°
2026-05-07 19:52 52.12385 -169.12272 37999 ft 501 kts 257°
2026-05-07 19:53 52.10860 -169.23350 38031 ft 502 kts 256°
2026-05-07 19:53 52.09326 -169.34431 38036 ft 502 kts 256°
2026-05-07 19:54 52.07780 -169.45516 38036 ft 503 kts 256°
2026-05-07 19:54 52.06222 -169.56600 38036 ft 503 kts 256°
2026-05-07 19:55 52.04914 -169.65825 38035 ft 504 kts 256°
2026-05-07 19:55 52.03334 -169.76910 37989 ft 504 kts 256°
2026-05-07 19:56 52.01739 -169.88009 37938 ft 505 kts 256°
2026-05-07 19:56 52.00202 -169.99152 37920 ft 507 kts 260°
2026-05-07 19:57 51.99387 -170.10507 37924 ft 507 kts 263°
2026-05-07 19:57 51.98730 -170.21892 37920 ft 507 kts 264°
2026-05-07 19:58 51.98088 -170.33281 37915 ft 507 kts 264°
2026-05-07 19:58 51.97425 -170.44673 37910 ft 507 kts 263°
2026-05-07 19:59 51.96739 -170.56062 37906 ft 507 kts 263°
2026-05-07 19:59 51.96042 -170.67434 37905 ft 506 kts 263°
2026-05-07 20:00 51.95336 -170.78788 37898 ft 507 kts 263°
2026-05-07 20:00 51.94617 -170.90163 37895 ft 507 kts 263°
2026-05-07 20:01 51.93893 -171.01455 37880 ft 507 kts 263°
2026-05-07 20:01 51.93154 -171.12802 37884 ft 507 kts 263°
2026-05-07 20:02 51.92403 -171.24156 37887 ft 507 kts 262°
2026-05-07 20:02 51.91641 -171.35505 37881 ft 507 kts 262°
2026-05-07 20:03 51.90871 -171.46861 37878 ft 507 kts 262°
2026-05-07 20:03 51.90085 -171.58219 37879 ft 508 kts 262°
2026-05-07 20:04 51.89288 -171.69579 37878 ft 507 kts 262°
2026-05-07 20:04 51.88485 -171.80930 37870 ft 508 kts 262°
2026-05-07 20:05 51.87669 -171.92275 37867 ft 507 kts 262°
2026-05-07 20:05 51.86837 -172.03631 37870 ft 508 kts 262°
2026-05-07 20:06 51.86000 -172.14977 37868 ft 508 kts 262°
2026-05-07 20:06 51.85146 -172.26318 37863 ft 508 kts 261°
2026-05-07 20:07 51.84280 -172.37644 37867 ft 507 kts 261°
2026-05-07 20:07 51.83421 -172.48884 37860 ft 507 kts 261°
2026-05-07 20:08 51.82542 -172.60192 37860 ft 507 kts 261°
2026-05-07 20:08 51.81645 -172.71500 37863 ft 507 kts 261°
2026-05-07 20:09 51.80741 -172.82783 37859 ft 507 kts 261°
2026-05-07 20:10 51.79367 -172.99714 37862 ft 506 kts 261°
2026-05-07 20:10 51.78437 -173.10983 37861 ft 506 kts 261°
2026-05-07 20:11 51.77496 -173.22233 37860 ft 506 kts 261°
2026-05-07 20:11 51.76550 -173.33486 37857 ft 505 kts 260°
2026-05-07 20:12 51.75590 -173.44724 37850 ft 505 kts 260°
2026-05-07 20:12 51.74625 -173.55953 37851 ft 505 kts 260°
2026-05-07 20:13 51.73646 -173.67177 37849 ft 505 kts 260°
2026-05-07 20:13 51.72652 -173.78382 37851 ft 505 kts 260°
2026-05-07 20:14 51.71649 -173.89587 37853 ft 506 kts 259°
2026-05-07 20:14 51.70637 -174.00807 37852 ft 506 kts 259°
2026-05-07 20:15 51.69616 -174.12008 37850 ft 505 kts 259°
2026-05-07 20:15 51.68591 -174.23124 37851 ft 505 kts 259°
2026-05-07 20:16 51.67545 -174.34313 37853 ft 505 kts 259°
2026-05-07 20:16 51.66495 -174.45487 37853 ft 505 kts 259°
2026-05-07 20:17 51.65430 -174.56654 37850 ft 504 kts 259°
2026-05-07 20:17 51.64356 -174.67798 37848 ft 504 kts 259°
2026-05-07 20:18 51.63273 -174.78937 37848 ft 503 kts 259°
2026-05-07 20:18 51.62178 -174.90066 37844 ft 503 kts 259°
2026-05-07 20:19 51.61074 -175.01178 37841 ft 503 kts 259°
2026-05-07 20:19 51.59962 -175.12283 37842 ft 502 kts 259°
2026-05-07 20:20 51.58841 -175.23377 37840 ft 503 kts 259°
2026-05-07 20:20 51.57703 -175.34461 37839 ft 502 kts 259°
2026-05-07 20:21 51.56560 -175.45533 37840 ft 502 kts 258°
2026-05-07 20:21 51.55405 -175.56606 37841 ft 502 kts 258°
2026-05-07 20:22 51.54239 -175.67659 37842 ft 503 kts 258°
2026-05-07 20:22 51.53073 -175.78740 37842 ft 504 kts 258°
2026-05-07 20:23 51.51894 -175.89832 37830 ft 503 kts 258°
2026-05-07 20:23 51.50683 -176.00856 37834 ft 502 kts 258°
2026-05-07 20:24 51.49471 -176.11883 37831 ft 502 kts 258°
2026-05-07 20:24 51.48261 -176.22894 37832 ft 501 kts 258°
2026-05-07 20:25 51.47048 -176.33819 37833 ft 500 kts 258°
2026-05-07 20:25 51.45817 -176.44800 37833 ft 500 kts 258°
2026-05-07 20:26 51.44577 -176.55757 37831 ft 500 kts 258°
2026-05-07 20:26 51.43329 -176.66712 37832 ft 499 kts 258°
2026-05-07 20:27 51.42070 -176.77642 37831 ft 499 kts 258°
2026-05-07 20:27 51.40800 -176.88567 37833 ft 498 kts 258°
2026-05-07 20:28 51.39524 -176.99467 37831 ft 498 kts 258°
2026-05-07 20:28 51.38240 -177.10354 37833 ft 498 kts 258°
2026-05-07 20:29 51.36943 -177.21245 37831 ft 498 kts 258°
2026-05-07 20:29 51.35637 -177.32104 37832 ft 497 kts 258°
2026-05-07 20:30 51.34320 -177.42957 37832 ft 498 kts 258°
2026-05-07 20:30 51.32996 -177.53807 37832 ft 497 kts 258°
2026-05-07 20:31 51.31662 -177.64661 37834 ft 497 kts 257°
2026-05-07 20:31 51.30315 -177.75504 37841 ft 497 kts 257°
2026-05-07 20:32 51.28971 -177.86245 37841 ft 497 kts 257°
2026-05-07 20:32 51.27606 -177.97067 37841 ft 497 kts 257°
2026-05-07 20:33 51.26230 -178.07874 37842 ft 496 kts 257°
2026-05-07 20:33 51.24851 -178.18650 37841 ft 495 kts 257°
2026-05-07 20:34 51.23464 -178.29397 37841 ft 494 kts 257°
2026-05-07 20:34 51.22069 -178.40126 37842 ft 494 kts 257°
2026-05-07 20:35 51.20664 -178.50852 37842 ft 494 kts 257°
2026-05-07 20:35 51.19252 -178.61548 37842 ft 493 kts 257°
2026-05-07 20:36 51.17830 -178.72232 37841 ft 492 kts 257°
2026-05-07 20:36 51.16399 -178.82896 37841 ft 492 kts 257°
2026-05-07 20:37 51.14962 -178.93539 37841 ft 491 kts 257°
2026-05-07 20:37 51.13517 -179.04161 37842 ft 491 kts 257°
2026-05-07 20:38 51.12063 -179.14768 37841 ft 490 kts 257°
2026-05-07 20:38 51.10612 -179.25295 37842 ft 490 kts 257°
2026-05-07 20:39 51.09142 -179.35872 37841 ft 489 kts 257°
2026-05-07 20:39 51.07664 -179.46438 37841 ft 489 kts 257°
2026-05-07 20:40 51.06178 -179.56972 37841 ft 488 kts 257°
2026-05-07 20:40 51.04684 -179.67505 37841 ft 488 kts 257°
2026-05-07 20:41 51.03181 -179.78016 37841 ft 488 kts 257°
2026-05-07 20:41 51.01670 -179.88506 37841 ft 487 kts 257°
2026-05-07 20:42 51.00438 -179.99081 37842 ft 487 kts 266°
2026-05-07 20:42 51.00699 179.90225 37939 ft 484 kts 276°
2026-05-07 20:42 51.01053 179.84921 38185 ft 482 kts 276°
2026-05-07 20:43 51.01447 179.79634 38363 ft 481 kts 277°
2026-05-07 20:43 51.01854 179.74360 38468 ft 482 kts 277°
2026-05-07 20:43 51.02258 179.69086 38567 ft 482 kts 277°
2026-05-07 20:43 51.02655 179.63790 38682 ft 482 kts 277°
2026-05-07 20:44 51.03042 179.58503 38842 ft 482 kts 276°
2026-05-07 20:44 51.03421 179.53221 38972 ft 482 kts 276°
2026-05-07 20:44 51.03796 179.47933 39081 ft 482 kts 276°
2026-05-07 20:44 51.04167 179.42643 39214 ft 481 kts 276°
2026-05-07 20:45 51.04534 179.37360 39311 ft 482 kts 276°
2026-05-07 20:45 51.05141 179.28566 39471 ft 482 kts 276°
2026-05-07 20:46 51.05863 179.17972 39618 ft 482 kts 276°
2026-05-07 20:46 51.06577 179.07369 39767 ft 482 kts 276°
2026-05-07 20:47 51.07286 178.96754 39886 ft 484 kts 276°
2026-05-07 20:47 51.07983 178.86096 39888 ft 485 kts 276°
2026-05-07 20:48 51.08672 178.75421 39888 ft 485 kts 276°
2026-05-07 20:48 51.09347 178.64753 39887 ft 485 kts 276°
2026-05-07 20:49 51.10018 178.54074 39887 ft 485 kts 276°
2026-05-07 20:49 51.10678 178.43400 39887 ft 485 kts 276°
2026-05-07 20:50 51.11328 178.32728 39888 ft 485 kts 276°
2026-05-07 20:50 51.11968 178.22044 39888 ft 485 kts 276°
2026-05-07 20:51 51.12597 178.11353 39888 ft 485 kts 275°
2026-05-07 20:51 51.13218 178.00655 39888 ft 485 kts 275°
2026-05-07 20:52 51.13828 177.89965 39887 ft 484 kts 275°
2026-05-07 20:52 51.14427 177.79313 39888 ft 483 kts 275°
2026-05-07 20:53 51.15012 177.68746 39888 ft 482 kts 275°
2026-05-07 20:53 51.15591 177.58105 39888 ft 482 kts 275°
2026-05-07 20:54 51.16160 177.47466 39897 ft 482 kts 275°
2026-05-07 20:54 51.16719 177.36830 39897 ft 482 kts 275°
2026-05-07 20:55 51.17268 177.26203 39897 ft 481 kts 275°
2026-05-07 20:55 51.17807 177.15574 39897 ft 481 kts 275°
2026-05-07 20:56 51.18335 177.04968 39897 ft 480 kts 275°
2026-05-07 20:56 51.18853 176.94350 39897 ft 480 kts 275°
2026-05-07 20:57 51.19360 176.83753 39897 ft 479 kts 275°
2026-05-07 20:57 51.19859 176.73162 39897 ft 479 kts 275°
2026-05-07 20:58 51.20348 176.62566 39897 ft 479 kts 275°
2026-05-07 20:58 51.20829 176.51980 39897 ft 479 kts 274°
2026-05-07 20:59 51.21299 176.41373 39897 ft 479 kts 274°
2026-05-07 20:59 51.21757 176.30767 39897 ft 479 kts 274°
2026-05-07 21:00 51.22205 176.20175 39897 ft 479 kts 274°
2026-05-07 21:00 51.22647 176.09557 39897 ft 479 kts 274°
2026-05-07 21:01 51.23078 175.98947 39897 ft 479 kts 274°
2026-05-07 21:01 51.23499 175.88351 39897 ft 478 kts 274°
2026-05-07 21:02 51.23910 175.77779 39897 ft 477 kts 274°
2026-05-07 21:02 51.24310 175.67237 39897 ft 476 kts 274°
2026-05-07 21:03 51.24702 175.56689 39891 ft 476 kts 274°
2026-05-07 21:03 51.25079 175.46228 39887 ft 475 kts 274°
2026-05-07 21:04 51.25173 175.35687 39888 ft 476 kts 265°
2026-05-07 21:04 51.23743 175.25388 39887 ft 477 kts 254°
2026-05-07 21:05 51.21707 175.15316 39888 ft 477 kts 253°
2026-05-07 21:05 51.19571 175.05309 39887 ft 476 kts 253°
2026-05-07 21:06 51.17444 174.95321 39888 ft 476 kts 253°
2026-05-07 21:06 51.15332 174.85339 39888 ft 474 kts 253°
2026-05-07 21:07 51.13222 174.75392 39888 ft 474 kts 253°
2026-05-07 21:07 51.11107 174.65449 39888 ft 474 kts 253°
2026-05-07 21:08 51.08985 174.55525 39888 ft 473 kts 253°
2026-05-07 21:08 51.06855 174.45622 39888 ft 473 kts 253°
2026-05-07 21:09 51.04718 174.35736 39887 ft 472 kts 253°
2026-05-07 21:09 51.02578 174.25877 39888 ft 472 kts 253°
2026-05-07 21:10 51.00425 174.16018 39888 ft 472 kts 253°
2026-05-07 21:10 50.98271 174.06196 39884 ft 471 kts 253°
2026-05-07 21:11 50.96110 173.96384 39879 ft 471 kts 253°
2026-05-07 21:11 50.92862 173.81731 39878 ft 469 kts 253°
2026-05-07 21:12 50.90695 173.72004 39878 ft 468 kts 253°
2026-05-07 21:12 50.88518 173.62282 39879 ft 468 kts 253°
2026-05-07 21:13 50.86335 173.52576 39878 ft 468 kts 253°
2026-05-07 21:13 50.84145 173.42886 39879 ft 467 kts 252°
2026-05-07 21:14 50.81947 173.33204 39878 ft 467 kts 252°
2026-05-07 21:14 50.79746 173.23545 39877 ft 467 kts 252°
2026-05-07 21:15 50.77537 173.13889 39879 ft 467 kts 252°
2026-05-07 21:15 50.75335 173.04332 39878 ft 467 kts 252°
2026-05-07 21:16 50.73108 172.94719 39877 ft 466 kts 252°
2026-05-07 21:16 50.70875 172.85108 39878 ft 467 kts 252°
2026-05-07 21:17 50.68631 172.75509 39879 ft 466 kts 252°
2026-05-07 21:17 50.66388 172.65943 39879 ft 465 kts 252°
2026-05-07 21:18 50.64138 172.56377 39877 ft 465 kts 252°
2026-05-07 21:18 50.61884 172.46840 39879 ft 465 kts 252°
2026-05-07 21:19 50.59611 172.37314 39876 ft 465 kts 252°
2026-05-07 21:19 50.57344 172.27784 39877 ft 464 kts 252°
2026-05-07 21:20 50.55074 172.18277 39880 ft 464 kts 252°
2026-05-07 21:20 50.52824 172.08877 39877 ft 461 kts 252°
2026-05-07 21:21 50.50533 171.99444 39880 ft 462 kts 251°
2026-05-07 21:21 50.48240 171.90028 39878 ft 461 kts 252°
2026-05-07 21:22 50.45950 171.80639 39868 ft 459 kts 252°
2026-05-07 21:22 50.43672 171.71266 39867 ft 461 kts 252°
2026-05-07 21:23 50.41374 171.61866 39870 ft 462 kts 252°
2026-05-07 21:23 50.39055 171.52477 39868 ft 461 kts 251°
2026-05-07 21:24 50.36717 171.43108 39869 ft 463 kts 251°
2026-05-07 21:24 50.34373 171.33738 39869 ft 462 kts 252°
2026-05-07 21:25 50.32031 171.24398 39869 ft 460 kts 251°
2026-05-07 21:25 50.29693 171.15077 39867 ft 461 kts 251°
2026-05-07 21:26 50.27361 171.05773 39868 ft 460 kts 251°
2026-05-07 21:26 50.25019 170.96488 39870 ft 457 kts 251°
2026-05-07 21:27 50.22654 170.87224 39869 ft 460 kts 251°
2026-05-07 21:27 50.20283 170.77965 39871 ft 458 kts 251°
2026-05-07 21:28 50.17907 170.68759 39860 ft 456 kts 251°
2026-05-07 21:28 50.15540 170.59570 39863 ft 456 kts 251°
2026-05-07 21:29 50.13210 170.50459 39861 ft 455 kts 251°
2026-05-07 21:29 50.10849 170.41264 39861 ft 453 kts 251°
2026-05-07 21:30 50.08471 170.32219 39859 ft 451 kts 251°
2026-05-07 21:30 50.06122 170.23257 39857 ft 448 kts 251°
2026-05-07 21:31 50.03783 170.14256 39860 ft 451 kts 251°
2026-05-07 21:31 50.01394 170.05197 39866 ft 455 kts 251°
2026-05-07 21:32 49.99062 169.97788 39865 ft 459 kts 244°
2026-05-07 21:32 49.95768 169.89300 39859 ft 458 kts 242°
2026-05-07 21:33 49.92374 169.80948 39862 ft 460 kts 242°
2026-05-07 21:33 49.88936 169.72619 39859 ft 456 kts 242°
2026-05-07 21:34 49.85475 169.64308 39867 ft 458 kts 241°
2026-05-07 21:34 49.82051 169.56001 39858 ft 456 kts 242°
2026-05-07 21:35 49.78648 169.47673 39859 ft 460 kts 242°
2026-05-07 21:35 49.75284 169.39359 39858 ft 456 kts 242°
2026-05-07 21:36 49.71904 169.31094 39863 ft 452 kts 242°
2026-05-07 21:36 49.68504 169.22914 39849 ft 453 kts 242°
2026-05-07 21:37 49.65080 169.14713 39852 ft 454 kts 242°
2026-05-07 21:37 49.61676 169.06535 39851 ft 452 kts 242°
2026-05-07 21:38 49.58280 168.98376 39849 ft 452 kts 242°
2026-05-07 21:38 49.54877 168.90265 39851 ft 450 kts 242°
2026-05-07 21:39 49.51506 168.82263 39853 ft 449 kts 242°
2026-05-07 21:39 49.48123 168.74230 39847 ft 448 kts 242°
2026-05-07 21:40 49.44727 168.66250 39852 ft 447 kts 242°
2026-05-07 21:40 49.41338 168.58210 39847 ft 448 kts 242°
2026-05-07 21:41 49.37942 168.50199 39837 ft 448 kts 241°
2026-05-07 21:41 49.34522 168.42199 39838 ft 447 kts 242°
2026-05-07 21:42 49.31121 168.34237 39842 ft 445 kts 242°
2026-05-07 21:42 49.27721 168.26279 39838 ft 446 kts 242°
2026-05-07 21:43 49.24310 168.18348 39845 ft 445 kts 242°
2026-05-07 21:43 49.20888 168.10425 39840 ft 447 kts 241°
2026-05-07 21:44 49.17453 168.02510 39844 ft 445 kts 241°
2026-05-07 21:44 49.14025 167.94645 39841 ft 445 kts 242°
2026-05-07 21:45 49.10609 167.86802 39834 ft 443 kts 242°
2026-05-07 21:45 49.07207 167.78989 39832 ft 442 kts 242°
2026-05-07 21:46 49.03797 167.71212 39830 ft 441 kts 242°
2026-05-07 21:46 49.00381 167.63457 39833 ft 441 kts 242°
2026-05-07 21:47 48.96976 167.55695 39838 ft 441 kts 242°
2026-05-07 21:47 48.93547 167.47972 39832 ft 440 kts 242°
2026-05-07 21:48 48.90124 167.40269 39833 ft 439 kts 242°
2026-05-07 21:48 48.86705 167.32576 39831 ft 440 kts 242°
2026-05-07 21:49 48.83285 167.24886 39832 ft 439 kts 242°
2026-05-07 21:49 48.79851 167.17216 39829 ft 439 kts 242°
2026-05-07 21:50 48.76424 167.09569 39821 ft 438 kts 242°
2026-05-07 21:50 48.73001 167.01952 39830 ft 437 kts 242°
2026-05-07 21:51 48.69573 166.94353 39825 ft 436 kts 242°
2026-05-07 21:51 48.66172 166.86834 39823 ft 436 kts 242°
2026-05-07 21:52 48.62726 166.79224 39822 ft 435 kts 242°
2026-05-07 21:52 48.59293 166.71684 39812 ft 436 kts 242°
2026-05-07 21:53 48.55883 166.64206 39824 ft 435 kts 242°
2026-05-07 21:53 48.52451 166.56700 39817 ft 433 kts 242°
2026-05-07 21:54 48.49020 166.49220 39814 ft 433 kts 242°
2026-05-07 21:54 48.45588 166.41759 39827 ft 433 kts 243°
2026-05-07 21:55 48.42157 166.34317 39823 ft 433 kts 242°
2026-05-07 21:55 48.38727 166.26896 39818 ft 431 kts 243°
2026-05-07 21:56 48.35303 166.19515 39824 ft 430 kts 243°
2026-05-07 21:56 48.31884 166.12157 39823 ft 430 kts 243°
2026-05-07 21:57 48.28459 166.04802 39822 ft 430 kts 243°
2026-05-07 21:57 48.25028 165.97469 39828 ft 429 kts 243°
2026-05-07 21:58 48.21597 165.90153 39816 ft 429 kts 243°
2026-05-07 21:58 48.18163 165.82850 39830 ft 429 kts 243°
2026-05-07 21:59 48.14723 165.75546 39830 ft 429 kts 243°
2026-05-07 21:59 48.11281 165.68254 39804 ft 429 kts 243°
2026-05-07 22:00 48.07832 165.60975 39811 ft 428 kts 242°
2026-05-07 22:00 48.04404 165.53756 39807 ft 428 kts 242°
2026-05-07 22:01 48.00927 165.46458 39811 ft 428 kts 242°
2026-05-07 22:01 47.97490 165.39273 39802 ft 427 kts 243°
2026-05-07 22:02 47.94046 165.32082 39817 ft 425 kts 243°
2026-05-07 22:02 47.90614 165.24931 39813 ft 424 kts 243°
2026-05-07 22:03 47.87184 165.17803 39811 ft 423 kts 243°
2026-05-07 22:03 47.83751 165.10694 39811 ft 422 kts 243°
2026-05-07 22:04 47.80323 165.03602 39812 ft 422 kts 243°
2026-05-07 22:04 47.76895 164.96530 39811 ft 421 kts 243°
2026-05-07 22:05 47.73466 164.89484 39811 ft 420 kts 243°
2026-05-07 22:05 47.70044 164.82463 39810 ft 419 kts 243°
2026-05-07 22:06 47.66622 164.75465 39810 ft 418 kts 243°
2026-05-07 22:06 47.63203 164.68486 39812 ft 418 kts 243°
2026-05-07 22:07 47.59782 164.61527 39811 ft 417 kts 243°
2026-05-07 22:07 47.56361 164.54580 39811 ft 417 kts 243°
2026-05-07 22:08 47.52938 164.47647 39829 ft 417 kts 243°
2026-05-07 22:08 47.49509 164.40720 39814 ft 417 kts 243°
2026-05-07 22:09 47.46081 164.33814 39811 ft 416 kts 243°
2026-05-07 22:09 47.42648 164.26919 39811 ft 416 kts 243°
2026-05-07 22:10 47.39219 164.20042 39811 ft 416 kts 243°
2026-05-07 22:10 47.35807 164.13224 39805 ft 416 kts 243°
2026-05-07 22:11 47.32367 164.06357 39804 ft 417 kts 243°
2026-05-07 22:11 47.28921 163.99499 39804 ft 416 kts 243°
2026-05-07 22:12 47.25475 163.92660 39804 ft 414 kts 243°
2026-05-07 22:12 47.22047 163.85880 39804 ft 412 kts 243°
2026-05-07 22:13 47.18629 163.79128 39804 ft 411 kts 243°
2026-05-07 22:13 47.15212 163.72391 39804 ft 411 kts 243°
2026-05-07 22:14 47.11789 163.65662 39804 ft 411 kts 243°
2026-05-07 22:14 47.08369 163.58957 39804 ft 410 kts 243°
2026-05-07 22:15 47.04945 163.52260 39804 ft 410 kts 243°
2026-05-07 22:15 47.01525 163.45586 39803 ft 409 kts 243°
2026-05-07 22:16 46.98110 163.38934 39804 ft 409 kts 243°
2026-05-07 22:16 46.94689 163.32291 39804 ft 408 kts 243°
2026-05-07 22:17 46.91264 163.25667 39803 ft 408 kts 243°
2026-05-07 22:17 46.87848 163.19063 39805 ft 407 kts 243°
2026-05-07 22:18 46.83299 163.10290 39804 ft 407 kts 243°
2026-05-07 22:19 46.79874 163.03707 39804 ft 407 kts 243°
2026-05-07 22:19 46.76451 162.97139 39803 ft 406 kts 243°
2026-05-07 22:20 46.73024 162.90586 39802 ft 406 kts 243°
2026-05-07 22:20 46.69598 162.84052 39803 ft 406 kts 243°
2026-05-07 22:21 46.66169 162.77528 39804 ft 405 kts 243°
2026-05-07 22:21 46.62751 162.71033 39804 ft 405 kts 243°
2026-05-07 22:22 46.59318 162.64529 39804 ft 405 kts 243°
2026-05-07 22:22 46.55893 162.58053 39805 ft 404 kts 243°
2026-05-07 22:23 46.52471 162.51599 39803 ft 403 kts 243°
2026-05-07 22:23 46.49049 162.45162 39804 ft 402 kts 244°
2026-05-07 22:24 46.45634 162.38747 39802 ft 401 kts 244°
2026-05-07 22:24 46.42243 162.32396 39805 ft 401 kts 244°
2026-05-07 22:25 46.38957 162.25928 39804 ft 395 kts 247°
2026-05-07 22:25 46.35980 162.19279 39803 ft 393 kts 248°
2026-05-07 22:26 46.33010 162.12637 39804 ft 393 kts 248°
2026-05-07 22:26 46.29999 162.06051 39804 ft 393 kts 247°
2026-05-07 22:27 46.26961 161.99494 39804 ft 393 kts 247°
2026-05-07 22:27 46.23911 161.92940 39804 ft 393 kts 247°
2026-05-07 22:28 46.20859 161.86389 39804 ft 393 kts 247°
2026-05-07 22:28 46.17798 161.79848 39804 ft 393 kts 247°
2026-05-07 22:29 46.14733 161.73302 39806 ft 394 kts 247°
2026-05-07 22:29 46.11673 161.66761 39804 ft 394 kts 247°
2026-05-07 22:30 46.08624 161.60273 39803 ft 393 kts 247°
2026-05-07 22:30 46.05536 161.53729 39803 ft 392 kts 246°
2026-05-07 22:31 46.02465 161.47232 39805 ft 393 kts 246°
2026-05-07 22:31 45.99404 161.40779 39804 ft 393 kts 246°
2026-05-07 22:32 45.96324 161.34283 39806 ft 395 kts 246°
2026-05-07 22:32 45.93223 161.27754 39805 ft 395 kts 246°
2026-05-07 22:33 45.90119 161.21240 39803 ft 395 kts 246°
2026-05-07 22:33 45.87005 161.14734 39806 ft 396 kts 246°
2026-05-07 22:34 45.83889 161.08236 39803 ft 395 kts 246°
2026-05-07 22:34 45.80773 161.01733 39804 ft 396 kts 246°
2026-05-07 22:35 45.77646 160.95239 39803 ft 396 kts 246°
2026-05-07 22:35 45.74515 160.88744 39805 ft 396 kts 246°
2026-05-07 22:36 45.71376 160.82254 39804 ft 396 kts 245°
2026-05-07 22:36 45.68236 160.75778 39804 ft 396 kts 245°
2026-05-07 22:37 45.65095 160.69310 39804 ft 396 kts 245°
2026-05-07 22:37 45.61952 160.62849 39805 ft 396 kts 245°
2026-05-07 22:38 45.58800 160.56391 39804 ft 396 kts 245°
2026-05-07 22:38 45.55645 160.49941 39804 ft 396 kts 245°
2026-05-07 22:39 45.52513 160.43553 39804 ft 395 kts 245°
2026-05-07 22:39 45.49364 160.37139 39804 ft 395 kts 245°
2026-05-07 22:40 45.46210 160.30732 39804 ft 395 kts 245°
2026-05-07 22:40 45.43052 160.24324 39804 ft 396 kts 245°
2026-05-07 22:41 45.39885 160.17926 39813 ft 395 kts 245°
2026-05-07 22:41 45.36714 160.11530 39823 ft 396 kts 245°
2026-05-07 22:42 45.33539 160.05133 39812 ft 396 kts 245°
2026-05-07 22:42 45.30356 159.98738 39813 ft 396 kts 245°
2026-05-07 22:43 45.27167 159.92352 39813 ft 396 kts 244°
2026-05-07 22:43 45.23980 159.85983 39811 ft 396 kts 244°
2026-05-07 22:44 45.20786 159.79608 39817 ft 397 kts 244°
2026-05-07 22:44 45.17585 159.73237 39812 ft 397 kts 244°
2026-05-07 22:45 45.14379 159.66865 39811 ft 397 kts 244°
2026-05-07 22:45 45.11164 159.60493 39812 ft 398 kts 244°
2026-05-07 22:46 45.07968 159.54180 39813 ft 397 kts 244°
2026-05-07 22:46 45.04747 159.47827 39814 ft 398 kts 244°
2026-05-07 22:47 45.01523 159.41478 39813 ft 397 kts 244°
2026-05-07 22:47 44.98295 159.35134 39829 ft 398 kts 244°
2026-05-07 22:48 44.95058 159.28789 39812 ft 398 kts 244°
2026-05-07 22:48 44.91811 159.22443 39812 ft 399 kts 244°
2026-05-07 22:49 44.88562 159.16100 39812 ft 399 kts 243°
2026-05-07 22:49 44.85301 159.09754 39805 ft 399 kts 243°
2026-05-07 22:50 44.82043 159.03424 39804 ft 398 kts 243°
2026-05-07 22:50 44.78786 158.97112 39805 ft 398 kts 243°
2026-05-07 22:51 44.75527 158.90808 39803 ft 398 kts 243°
2026-05-07 22:51 44.72262 158.84509 39804 ft 398 kts 243°
2026-05-07 22:52 44.68991 158.78211 39804 ft 399 kts 243°
2026-05-07 22:52 44.65712 158.71910 39804 ft 400 kts 243°
2026-05-07 22:53 44.62429 158.65612 39803 ft 399 kts 243°
2026-05-07 22:53 44.59137 158.59320 39804 ft 400 kts 243°
2026-05-07 22:54 44.55839 158.53028 39804 ft 400 kts 243°
2026-05-07 22:54 44.52545 158.46753 39804 ft 400 kts 243°
2026-05-07 22:55 44.49243 158.40472 39804 ft 400 kts 242°
2026-05-07 22:55 44.45936 158.34195 39805 ft 401 kts 242°
2026-05-07 22:56 44.42617 158.27914 39803 ft 401 kts 242°
2026-05-07 22:56 44.39317 158.21686 39804 ft 401 kts 242°
2026-05-07 22:57 44.35994 158.15423 39803 ft 401 kts 242°
2026-05-07 22:57 44.32665 158.09162 39804 ft 401 kts 242°
2026-05-07 22:58 44.29331 158.02907 39814 ft 402 kts 242°
2026-05-07 22:58 44.25996 157.96660 39812 ft 402 kts 242°
2026-05-07 22:59 44.22650 157.90412 39812 ft 402 kts 242°
2026-05-07 22:59 44.19299 157.84166 39811 ft 402 kts 242°
2026-05-07 23:00 44.15941 157.77925 39812 ft 402 kts 242°
2026-05-07 23:00 44.12579 157.71688 39813 ft 403 kts 242°
2026-05-07 23:01 44.09218 157.65462 39812 ft 403 kts 242°
2026-05-07 23:01 44.05855 157.59244 39813 ft 402 kts 242°
2026-05-07 23:02 44.02485 157.53028 39812 ft 402 kts 241°
2026-05-07 23:02 43.99117 157.46836 39812 ft 401 kts 241°
2026-05-07 23:03 43.95748 157.40642 39814 ft 403 kts 241°
2026-05-07 23:03 43.92364 157.34440 39812 ft 403 kts 241°
2026-05-07 23:04 43.88972 157.28239 39805 ft 404 kts 241°
2026-05-07 23:04 43.85578 157.22050 39812 ft 403 kts 240°
2026-05-07 23:05 43.82203 157.15905 39812 ft 404 kts 240°
2026-05-07 23:05 43.78799 157.09717 39814 ft 404 kts 240°
2026-05-07 23:06 43.75391 157.03541 39813 ft 403 kts 240°
2026-05-07 23:06 43.71984 156.97374 39811 ft 404 kts 240°
2026-05-07 23:07 43.68569 156.91208 39826 ft 404 kts 240°
2026-05-07 23:07 43.65155 156.85057 39804 ft 404 kts 240°
2026-05-07 23:08 43.61735 156.78909 39804 ft 404 kts 240°
2026-05-07 23:08 43.58890 156.73804 39805 ft 404 kts 240°
2026-05-07 23:09 43.55460 156.67662 39804 ft 404 kts 240°
2026-05-07 23:09 43.52036 156.61547 39805 ft 403 kts 239°
2026-05-07 23:10 43.48607 156.55431 39805 ft 404 kts 239°
2026-05-07 23:10 43.45172 156.49315 39805 ft 404 kts 239°
2026-05-07 23:11 43.41732 156.43203 39803 ft 404 kts 239°
2026-05-07 23:11 43.38293 156.37111 39804 ft 404 kts 239°
2026-05-07 23:12 43.34841 156.31007 39804 ft 404 kts 239°
2026-05-07 23:12 43.31390 156.24915 39806 ft 404 kts 239°
2026-05-07 23:13 43.27930 156.18815 39811 ft 405 kts 239°
2026-05-07 23:13 43.24471 156.12737 39813 ft 404 kts 239°
2026-05-07 23:14 43.21007 156.06666 39808 ft 404 kts 239°
2026-05-07 23:14 43.17565 156.00638 39814 ft 404 kts 239°
2026-05-07 23:15 43.14097 155.94576 39815 ft 405 kts 239°
2026-05-07 23:15 43.10615 155.88509 39806 ft 405 kts 238°
2026-05-07 23:16 43.07126 155.82446 39827 ft 406 kts 238°
2026-05-07 23:16 43.03637 155.76387 39813 ft 406 kts 238°
2026-05-07 23:17 43.00138 155.70326 39805 ft 406 kts 238°
2026-05-07 23:17 42.96632 155.64279 39814 ft 406 kts 238°
2026-05-07 23:18 42.93068 155.58278 39812 ft 408 kts 237°
2026-05-07 23:18 42.89479 155.52285 39812 ft 407 kts 237°
2026-05-07 23:19 42.85895 155.46288 39814 ft 408 kts 237°
2026-05-07 23:19 42.82308 155.40292 39814 ft 408 kts 237°
2026-05-07 23:20 42.78725 155.34313 39806 ft 408 kts 237°
2026-05-07 23:20 42.75136 155.28335 39812 ft 408 kts 237°
2026-05-07 23:21 42.71544 155.22365 39811 ft 408 kts 237°
2026-05-07 23:21 42.67952 155.16404 39802 ft 408 kts 237°
2026-05-07 23:22 42.64380 155.10483 39812 ft 408 kts 237°
2026-05-07 23:22 42.60781 155.04540 39825 ft 407 kts 237°
2026-05-07 23:23 42.57180 154.98601 39810 ft 408 kts 237°
2026-05-07 23:23 42.53569 154.92664 39813 ft 408 kts 237°
2026-05-07 23:24 42.49955 154.86734 39814 ft 408 kts 237°
2026-05-07 23:24 42.46341 154.80808 39811 ft 408 kts 237°
2026-05-07 23:25 42.42722 154.74885 39811 ft 409 kts 237°
2026-05-07 23:25 42.39095 154.68962 39812 ft 409 kts 237°
2026-05-07 23:26 42.35463 154.63044 39813 ft 409 kts 236°
2026-05-07 23:26 42.31829 154.57135 39810 ft 409 kts 236°
2026-05-07 23:27 42.26360 154.48263 39813 ft 410 kts 236°
2026-05-07 23:27 42.22709 154.42358 39825 ft 410 kts 236°
2026-05-07 23:28 42.19053 154.36452 39816 ft 410 kts 236°
2026-05-07 23:28 42.15394 154.30556 39819 ft 410 kts 236°
2026-05-07 23:29 42.11733 154.24669 39830 ft 410 kts 236°
2026-05-07 23:29 42.08070 154.18784 39824 ft 410 kts 236°
2026-05-07 23:30 42.04398 154.12907 39817 ft 410 kts 236°
2026-05-07 23:30 42.00728 154.07042 39823 ft 410 kts 236°
2026-05-07 23:31 41.97057 154.01181 39823 ft 410 kts 236°
2026-05-07 23:31 41.93379 153.95323 39830 ft 410 kts 236°
2026-05-07 23:32 41.89725 153.89515 39821 ft 410 kts 236°
2026-05-07 23:32 41.86041 153.83672 39823 ft 410 kts 236°
2026-05-07 23:33 41.82354 153.77834 39819 ft 410 kts 236°
2026-05-07 23:33 41.78658 153.71993 39824 ft 411 kts 236°
2026-05-07 23:34 41.74955 153.66154 39830 ft 411 kts 235°
2026-05-07 23:34 41.71252 153.60327 39830 ft 411 kts 235°
2026-05-07 23:35 41.67541 153.54491 39830 ft 412 kts 235°
2026-05-07 23:35 41.63825 153.48658 39824 ft 413 kts 235°
2026-05-07 23:36 41.60097 153.42827 39828 ft 413 kts 235°
2026-05-07 23:36 41.56359 153.36994 39820 ft 413 kts 235°
2026-05-07 23:37 41.52617 153.31158 39818 ft 414 kts 234°
2026-05-07 23:37 41.48867 153.25326 39819 ft 414 kts 234°
2026-05-07 23:38 41.45111 153.19494 39816 ft 415 kts 234°
2026-05-07 23:38 41.41348 153.13661 39828 ft 415 kts 234°
2026-05-07 23:39 41.37581 153.07837 39815 ft 415 kts 234°
2026-05-07 23:39 41.33813 153.02017 39817 ft 415 kts 234°
2026-05-07 23:40 41.30039 152.96197 39817 ft 415 kts 234°
2026-05-07 23:40 41.26260 152.90390 39836 ft 415 kts 234°
2026-05-07 23:41 41.22503 152.84628 39830 ft 415 kts 234°
2026-05-07 23:41 41.18724 152.78838 39826 ft 415 kts 233°
2026-05-07 23:42 41.14933 152.73040 39838 ft 416 kts 233°
2026-05-07 23:42 41.11149 152.67264 39825 ft 416 kts 233°
2026-05-07 23:43 41.07345 152.61470 39830 ft 416 kts 233°
2026-05-07 23:43 41.03546 152.55696 39836 ft 416 kts 233°
2026-05-07 23:44 40.99739 152.49919 39839 ft 417 kts 233°
2026-05-07 23:44 40.95924 152.44140 39836 ft 417 kts 233°
2026-05-07 23:45 40.92104 152.38367 39825 ft 418 kts 233°
2026-05-07 23:45 40.88271 152.32588 39828 ft 418 kts 233°
2026-05-07 23:46 40.84437 152.26815 39826 ft 418 kts 233°
2026-05-07 23:46 40.80601 152.21046 39831 ft 418 kts 232°
2026-05-07 23:47 40.76751 152.15271 39839 ft 419 kts 232°
2026-05-07 23:47 40.72896 152.09500 39826 ft 420 kts 232°
2026-05-07 23:48 40.69030 152.03724 39839 ft 420 kts 232°
2026-05-07 23:48 40.65157 151.97948 39826 ft 420 kts 232°
2026-05-07 23:49 40.61287 151.92189 39825 ft 420 kts 232°
2026-05-07 23:49 40.57418 151.86437 39826 ft 420 kts 232°
2026-05-07 23:50 40.53540 151.80685 39826 ft 421 kts 232°
2026-05-07 23:50 40.49652 151.74933 39838 ft 421 kts 232°
2026-05-07 23:51 40.45785 151.69223 39832 ft 421 kts 232°
2026-05-07 23:51 40.41895 151.63483 39839 ft 421 kts 231°
2026-05-07 23:52 40.37999 151.57748 39826 ft 421 kts 231°
2026-05-07 23:52 40.34100 151.52019 39838 ft 421 kts 231°
2026-05-07 23:53 40.30829 151.47223 39839 ft 421 kts 231°
2026-05-07 23:53 40.26292 151.40585 39835 ft 420 kts 231°
2026-05-07 23:54 40.22390 151.34885 39835 ft 420 kts 231°
2026-05-07 23:54 40.18484 151.29186 39834 ft 421 kts 231°
2026-05-07 23:55 40.14575 151.23495 39827 ft 420 kts 231°
2026-05-07 23:55 40.10669 151.17820 39835 ft 420 kts 231°
2026-05-07 23:56 40.06761 151.12156 39828 ft 420 kts 231°
2026-05-07 23:56 40.03509 151.07451 39831 ft 420 kts 231°
2026-05-07 23:57 39.99600 151.01801 39826 ft 419 kts 231°
2026-05-07 23:57 39.95688 150.96156 39829 ft 420 kts 231°
2026-05-07 23:58 39.91759 150.90498 39838 ft 421 kts 231°
2026-05-07 23:58 39.87822 150.84842 39838 ft 421 kts 231°
2026-05-07 23:59 39.83887 150.79197 39845 ft 421 kts 231°
2026-05-07 23:59 39.79954 150.73564 39844 ft 421 kts 231°
2026-05-08 00:00 39.76017 150.67933 39833 ft 420 kts 231°
2026-05-08 00:00 39.72080 150.62319 39827 ft 420 kts 231°
2026-05-08 00:01 39.68141 150.56711 39830 ft 420 kts 231°
2026-05-08 00:01 39.64199 150.51109 39837 ft 420 kts 230°
2026-05-08 00:02 39.60281 150.45555 39826 ft 419 kts 231°
2026-05-08 00:02 39.56348 150.39985 39828 ft 419 kts 230°
2026-05-08 00:03 39.52405 150.34409 39832 ft 419 kts 230°
2026-05-08 00:03 39.48462 150.28844 39831 ft 419 kts 230°
2026-05-08 00:04 39.44520 150.23293 39839 ft 419 kts 230°
2026-05-08 00:04 39.40569 150.17738 39834 ft 419 kts 230°
2026-05-08 00:05 39.36618 150.12191 39826 ft 419 kts 230°
2026-05-08 00:05 39.32664 150.06653 39825 ft 419 kts 230°
2026-05-08 00:06 39.28707 150.01119 39831 ft 419 kts 230°
2026-05-08 00:06 39.24745 149.95588 39826 ft 419 kts 230°
2026-05-08 00:07 39.20785 149.90071 39835 ft 419 kts 230°
2026-05-08 00:07 39.16847 149.84546 39829 ft 417 kts 232°
2026-05-08 00:08 39.13569 149.78430 39826 ft 414 kts 240°
2026-05-08 00:08 39.10678 149.72012 39833 ft 414 kts 242°
2026-05-08 00:09 39.07848 149.65552 39827 ft 414 kts 242°
2026-05-08 00:09 39.05006 149.59093 39840 ft 415 kts 241°
2026-05-08 00:10 39.02151 149.52652 39837 ft 415 kts 241°
2026-05-08 00:10 38.99284 149.46215 39837 ft 414 kts 241°
2026-05-08 00:11 38.96419 149.39789 39839 ft 414 kts 241°
2026-05-08 00:11 38.93554 149.33377 39827 ft 413 kts 241°
2026-05-08 00:12 38.90687 149.26977 39830 ft 414 kts 241°
2026-05-08 00:12 38.87836 149.20625 39829 ft 413 kts 241°
2026-05-08 00:13 38.84962 149.14235 39835 ft 413 kts 241°
2026-05-08 00:13 38.82086 149.07852 39827 ft 413 kts 241°
2026-05-08 00:14 38.79206 149.01472 39838 ft 413 kts 241°
2026-05-08 00:14 38.76326 148.95104 39833 ft 413 kts 240°
2026-05-08 00:15 38.73440 148.88738 39830 ft 413 kts 240°
2026-05-08 00:15 38.70555 148.82388 39830 ft 412 kts 240°
2026-05-08 00:16 38.67671 148.76057 39831 ft 412 kts 240°
2026-05-08 00:16 38.64764 148.69673 39835 ft 418 kts 239°
2026-05-08 00:17 38.61804 148.63195 39835 ft 425 kts 239°
2026-05-08 00:17 38.58790 148.56614 39828 ft 432 kts 239°
2026-05-08 00:18 38.55734 148.49948 39827 ft 437 kts 239°
2026-05-08 00:18 38.52656 148.43261 39830 ft 437 kts 239°
2026-05-08 00:19 38.49575 148.36576 39830 ft 437 kts 239°
2026-05-08 00:19 38.46489 148.29890 39833 ft 438 kts 239°
2026-05-08 00:20 38.43391 148.23192 39829 ft 439 kts 239°
2026-05-08 00:20 38.40284 148.16491 39834 ft 439 kts 239°
2026-05-08 00:21 38.37167 148.09781 39834 ft 440 kts 239°
2026-05-08 00:21 38.34061 148.03113 39827 ft 441 kts 238°
2026-05-08 00:22 38.30928 147.96399 39841 ft 441 kts 238°
2026-05-08 00:22 38.27784 147.89678 39841 ft 442 kts 238°
2026-05-08 00:23 38.24640 147.82966 39839 ft 442 kts 238°
2026-05-08 00:23 38.21491 147.76253 39840 ft 442 kts 238°
2026-05-08 00:24 38.18336 147.69546 39839 ft 442 kts 238°
2026-05-08 00:24 38.15181 147.62851 39848 ft 441 kts 238°
2026-05-08 00:25 38.12022 147.56166 39840 ft 441 kts 238°
2026-05-08 00:25 38.08864 147.49495 39842 ft 441 kts 238°
2026-05-08 00:26 38.05701 147.42830 39841 ft 441 kts 238°
2026-05-08 00:26 38.02539 147.36178 39840 ft 440 kts 238°
2026-05-08 00:27 37.99376 147.29537 39840 ft 439 kts 238°
2026-05-08 00:27 37.96208 147.22897 39848 ft 442 kts 238°
2026-05-08 00:28 37.93021 147.16230 39839 ft 442 kts 238°
2026-05-08 00:28 37.89830 147.09574 39840 ft 442 kts 238°
2026-05-08 00:29 37.86638 147.02928 39843 ft 442 kts 238°
2026-05-08 00:29 37.83441 146.96285 39840 ft 442 kts 238°
2026-05-08 00:30 37.80245 146.89653 39845 ft 441 kts 238°
2026-05-08 00:30 37.77046 146.83031 39840 ft 441 kts 238°
2026-05-08 00:31 37.73846 146.76421 39841 ft 441 kts 238°
2026-05-08 00:31 37.70646 146.69826 40121 ft 439 kts 238°
2026-05-08 00:32 37.69050 146.66541 40327 ft 438 kts 238°
2026-05-08 00:32 37.67458 146.63268 40474 ft 438 kts 238°
2026-05-08 00:32 37.65885 146.60038 40628 ft 437 kts 238°
2026-05-08 00:32 37.64296 146.56775 40777 ft 436 kts 238°
2026-05-08 00:33 37.62705 146.53515 40902 ft 436 kts 238°
2026-05-08 00:33 37.61115 146.50257 41030 ft 436 kts 238°
2026-05-08 00:33 37.59526 146.47005 41146 ft 436 kts 238°
2026-05-08 00:33 37.57934 146.43752 41246 ft 436 kts 238°
2026-05-08 00:34 37.54744 146.37240 41444 ft 436 kts 238°
2026-05-08 00:34 37.53150 146.33993 41578 ft 436 kts 238°
2026-05-08 00:34 37.51556 146.30747 41641 ft 436 kts 238°
2026-05-08 00:35 37.48361 146.24251 41815 ft 436 kts 238°
2026-05-08 00:35 37.45155 146.17746 41841 ft 438 kts 238°
2026-05-08 00:36 37.41940 146.11235 41843 ft 438 kts 238°
2026-05-08 00:36 37.38722 146.04732 41840 ft 438 kts 238°
2026-05-08 00:37 37.35501 145.98234 41845 ft 438 kts 238°
2026-05-08 00:38 37.30671 145.88515 41833 ft 437 kts 238°
2026-05-08 00:38 37.27450 145.82051 41832 ft 437 kts 238°
2026-05-08 00:39 37.24225 145.75590 41832 ft 437 kts 238°
2026-05-08 00:39 37.21007 145.69130 41830 ft 437 kts 239°
2026-05-08 00:40 37.18447 145.62220 41833 ft 437 kts 248°
2026-05-08 00:40 37.16282 145.55085 41831 ft 438 kts 249°
2026-05-08 00:41 37.14178 145.47918 41832 ft 438 kts 249°
2026-05-08 00:41 37.12066 145.40760 41831 ft 438 kts 249°
2026-05-08 00:42 37.09937 145.33607 41833 ft 438 kts 249°
2026-05-08 00:42 37.07800 145.26466 41832 ft 438 kts 249°
2026-05-08 00:43 37.05656 145.19323 41831 ft 438 kts 248°
2026-05-08 00:43 37.03873 145.13395 41830 ft 438 kts 248°
2026-05-08 00:44 37.01375 145.05107 41833 ft 437 kts 248°
2026-05-08 00:44 36.99574 144.99149 41832 ft 437 kts 248°
2026-05-08 00:45 36.97435 144.92088 41833 ft 437 kts 248°
2026-05-08 00:45 36.95279 144.84988 41831 ft 437 kts 248°
2026-05-08 00:46 36.93118 144.77891 41829 ft 437 kts 248°
2026-05-08 00:46 36.90952 144.70795 41831 ft 437 kts 248°
2026-05-08 00:47 36.88782 144.63702 41832 ft 437 kts 248°
2026-05-08 00:47 36.86608 144.56616 41829 ft 437 kts 248°
2026-05-08 00:48 36.84429 144.49531 41832 ft 437 kts 248°
2026-05-08 00:48 36.82247 144.42454 41831 ft 437 kts 248°
2026-05-08 00:49 36.80061 144.35380 41832 ft 437 kts 248°
2026-05-08 00:49 36.77867 144.28318 41833 ft 437 kts 248°
2026-05-08 00:50 36.75670 144.21248 41832 ft 437 kts 248°
2026-05-08 00:50 36.73470 144.14183 41832 ft 437 kts 248°
2026-05-08 00:51 36.71266 144.07124 41831 ft 437 kts 248°
2026-05-08 00:51 36.69057 144.00072 41830 ft 437 kts 248°
2026-05-08 00:52 36.66844 143.93024 41829 ft 437 kts 248°
2026-05-08 00:52 36.64626 143.85977 41831 ft 437 kts 248°
2026-05-08 00:53 36.62402 143.78941 41832 ft 437 kts 248°
2026-05-08 00:53 36.60176 143.71907 41832 ft 437 kts 248°
2026-05-08 00:54 36.57948 143.64878 41833 ft 437 kts 248°
2026-05-08 00:54 36.55713 143.57850 41833 ft 437 kts 248°
2026-05-08 00:55 36.53475 143.50830 41832 ft 437 kts 248°
2026-05-08 00:55 36.51233 143.43813 41833 ft 437 kts 248°
2026-05-08 00:56 36.48986 143.36801 41831 ft 436 kts 248°
2026-05-08 00:56 36.46737 143.29800 41832 ft 436 kts 248°
2026-05-08 00:57 36.44484 143.22800 41829 ft 437 kts 248°
2026-05-08 00:57 36.42226 143.15801 41832 ft 437 kts 248°
2026-05-08 00:58 36.39978 143.08852 41833 ft 436 kts 248°
2026-05-08 00:58 36.37712 143.01863 41831 ft 436 kts 248°
2026-05-08 00:59 36.35429 142.94837 41838 ft 436 kts 248°
2026-05-08 00:59 36.33169 142.87900 41841 ft 436 kts 248°
2026-05-08 01:00 36.30892 142.80928 41842 ft 436 kts 248°
2026-05-08 01:00 36.28609 142.73953 41841 ft 437 kts 248°
2026-05-08 01:01 36.26321 142.66978 41842 ft 437 kts 248°
2026-05-08 01:01 36.24026 142.60000 41843 ft 437 kts 248°
2026-05-08 01:02 36.21726 142.53021 41840 ft 438 kts 248°
2026-05-08 01:02 36.19417 142.46034 41838 ft 438 kts 248°
2026-05-08 01:03 36.17089 142.39060 41831 ft 439 kts 246°
2026-05-08 01:03 36.14604 142.32164 41813 ft 439 kts 246°
2026-05-08 01:04 36.12070 142.25276 41812 ft 440 kts 246°
2026-05-08 01:04 36.09550 142.18375 41816 ft 441 kts 246°
2026-05-08 01:05 36.07038 142.11459 41812 ft 441 kts 246°
2026-05-08 01:05 36.04537 142.04549 41814 ft 441 kts 246°
2026-05-08 01:06 36.02056 141.97628 41814 ft 441 kts 246°
2026-05-08 01:06 35.99568 141.90710 41815 ft 441 kts 246°
2026-05-08 01:06 35.98323 141.87256 41643 ft 440 kts 246°
2026-05-08 01:07 35.97309 141.84452 41146 ft 439 kts 246°
2026-05-08 01:07 35.96336 141.81740 40484 ft 442 kts 247°
2026-05-08 01:07 35.95305 141.78154 39589 ft 446 kts 254°
2026-05-08 01:07 35.94666 141.74393 38697 ft 451 kts 262°
2026-05-08 01:08 35.94447 141.70515 37827 ft 454 kts 266°
2026-05-08 01:08 35.94395 141.66667 37070 ft 455 kts 268°
2026-05-08 01:08 35.94407 141.62769 36357 ft 453 kts 269°
2026-05-08 01:08 35.94446 141.58886 35638 ft 452 kts 269°
2026-05-08 01:09 35.94489 141.55016 34894 ft 451 kts 268°
2026-05-08 01:09 35.94528 141.51140 34089 ft 452 kts 268°
2026-05-08 01:09 35.94557 141.47254 33216 ft 454 kts 268°
2026-05-08 01:09 35.94579 141.43363 32409 ft 454 kts 268°
2026-05-08 01:10 35.94596 141.39487 31781 ft 450 kts 267°
2026-05-08 01:10 35.94610 141.35640 31182 ft 446 kts 267°
2026-05-08 01:10 35.94621 141.31833 30590 ft 442 kts 267°
2026-05-08 01:10 35.94630 141.28059 29996 ft 438 kts 267°
2026-05-08 01:11 35.94637 141.24316 29414 ft 434 kts 267°
2026-05-08 01:11 35.94645 141.20613 28848 ft 430 kts 267°
2026-05-08 01:11 35.94653 141.16940 28299 ft 425 kts 267°
2026-05-08 01:11 35.94657 141.13305 27729 ft 422 kts 267°
2026-05-08 01:12 35.94659 141.09706 27172 ft 418 kts 266°
2026-05-08 01:12 35.94660 141.06141 26618 ft 413 kts 266°
2026-05-08 01:12 35.94659 141.02608 26049 ft 410 kts 266°
2026-05-08 01:12 35.94739 140.99105 25514 ft 409 kts 272°
2026-05-08 01:13 35.95305 140.95663 24956 ft 412 kts 283°
2026-05-08 01:13 35.96457 140.92420 24386 ft 414 kts 291°
2026-05-08 01:13 35.97861 140.89319 23803 ft 414 kts 295°
2026-05-08 01:13 35.99373 140.86293 23221 ft 413 kts 296°
2026-05-08 01:14 36.00924 140.83321 22641 ft 410 kts 296°
2026-05-08 01:14 36.02479 140.80378 22060 ft 407 kts 296°
2026-05-08 01:14 36.04015 140.77454 21473 ft 404 kts 296°
2026-05-08 01:14 36.05528 140.74544 20886 ft 401 kts 296°
2026-05-08 01:15 36.07017 140.71649 20297 ft 397 kts 295°
2026-05-08 01:15 36.08485 140.68777 19708 ft 394 kts 295°
2026-05-08 01:15 36.09935 140.65924 19152 ft 389 kts 295°
2026-05-08 01:15 36.11364 140.63100 18596 ft 385 kts 295°
2026-05-08 01:16 36.12778 140.60307 18041 ft 381 kts 295°
2026-05-08 01:16 36.14179 140.57540 17495 ft 377 kts 295°
2026-05-08 01:16 36.15563 140.54803 16942 ft 374 kts 295°
2026-05-08 01:16 36.16937 140.52085 16414 ft 371 kts 295°
2026-05-08 01:17 36.18299 140.49391 15875 ft 367 kts 295°
2026-05-08 01:17 36.19649 140.46721 15348 ft 365 kts 295°
2026-05-08 01:17 36.21177 140.44195 14803 ft 370 kts 307°
2026-05-08 01:17 36.23209 140.42200 14544 ft 378 kts 319°
2026-05-08 01:18 36.25422 140.40409 14362 ft 381 kts 321°
2026-05-08 01:18 36.27655 140.38643 14213 ft 380 kts 321°
2026-05-08 01:18 36.29877 140.36883 13997 ft 379 kts 321°
2026-05-08 01:18 36.32091 140.35123 13748 ft 377 kts 321°
2026-05-08 01:19 36.34296 140.33364 13502 ft 376 kts 321°
2026-05-08 01:19 36.36476 140.31585 13254 ft 372 kts 318°
2026-05-08 01:19 36.38313 140.29417 13004 ft 359 kts 301°
2026-05-08 01:19 36.39406 140.26770 12776 ft 345 kts 282°
2026-05-08 01:20 36.39712 140.23870 12557 ft 336 kts 264°
2026-05-08 01:20 36.39352 140.21029 12338 ft 333 kts 255°
2026-05-08 01:20 36.38803 140.18245 12122 ft 332 kts 253°
2026-05-08 01:20 36.38239 140.15470 11903 ft 332 kts 253°
2026-05-08 01:21 36.37682 140.12695 11681 ft 331 kts 254°
2026-05-08 01:21 36.37129 140.09924 11482 ft 331 kts 254°
2026-05-08 01:21 36.36577 140.07146 11255 ft 331 kts 254°
2026-05-08 01:21 36.36009 140.04387 11058 ft 327 kts 251°
2026-05-08 01:22 36.35085 140.01902 10872 ft 310 kts 235°
2026-05-08 01:22 36.33603 140.00050 10667 ft 298 kts 216°
2026-05-08 01:22 36.31773 139.98965 10488 ft 289 kts 200°
2026-05-08 01:22 36.29872 139.98289 10281 ft 279 kts 198°
2026-05-08 01:23 36.28009 139.97682 10102 ft 277 kts 198°
2026-05-08 01:23 36.26142 139.97070 9899 ft 278 kts 197°
2026-05-08 01:23 36.24272 139.96452 9700 ft 278 kts 198°
2026-05-08 01:23 36.22398 139.95827 9514 ft 279 kts 197°
2026-05-08 01:24 36.20522 139.95200 9336 ft 280 kts 197°
2026-05-08 01:24 36.18644 139.94571 9153 ft 280 kts 197°
2026-05-08 01:24 36.16767 139.93942 8981 ft 279 kts 197°
2026-05-08 01:24 36.14890 139.93313 8779 ft 280 kts 197°
2026-05-08 01:25 36.13007 139.92681 8585 ft 280 kts 197°
2026-05-08 01:25 36.11127 139.92052 8412 ft 280 kts 197°
2026-05-08 01:25 36.09254 139.91424 8230 ft 278 kts 197°
2026-05-08 01:25 36.07385 139.90800 8037 ft 278 kts 197°
2026-05-08 01:26 36.05488 139.90327 7848 ft 279 kts 186°
2026-05-08 01:26 36.03560 139.90631 7676 ft 281 kts 166°
2026-05-08 01:26 36.01705 139.91401 7492 ft 282 kts 162°
2026-05-08 01:26 35.99864 139.92234 7298 ft 281 kts 162°
2026-05-08 01:27 35.98028 139.93061 7111 ft 281 kts 162°
2026-05-08 01:27 35.96192 139.93879 6938 ft 280 kts 162°
2026-05-08 01:27 35.94363 139.94690 6752 ft 278 kts 162°
2026-05-08 01:27 35.92584 139.95478 6594 ft 266 kts 162°
2026-05-08 01:28 35.90876 139.96238 6425 ft 256 kts 162°
2026-05-08 01:28 35.89235 139.96957 6308 ft 244 kts 162°
2026-05-08 01:28 35.87674 139.97640 6198 ft 232 kts 162°
2026-05-08 01:28 35.86158 139.98097 6092 ft 218 kts 178°
2026-05-08 01:29 35.84699 139.98064 6025 ft 203 kts 186°
2026-05-08 01:29 35.83335 139.98112 5926 ft 190 kts 177°
2026-05-08 01:29 35.82042 139.98187 5873 ft 184 kts 184°
2026-05-08 01:29 35.80794 139.97924 5792 ft 182 kts 198°
2026-05-08 01:30 35.79642 139.97342 5667 ft 182 kts 209°
2026-05-08 01:30 35.78907 139.96809 5560 ft 181 kts 213°
2026-05-08 01:30 35.77903 139.95973 5492 ft 167 kts 216°
2026-05-08 01:30 35.76678 139.94910 5207 ft 160 kts 216°
2026-05-08 01:31 35.76066 139.94381 4964 ft 160 kts 216°
2026-05-08 01:31 35.75143 139.93591 4553 ft 163 kts 215°
2026-05-08 01:31 35.74205 139.92780 4156 ft 166 kts 216°
2026-05-08 01:31 35.73278 139.91977 3882 ft 159 kts 215°
2026-05-08 01:32 35.72403 139.91221 3675 ft 148 kts 215°
2026-05-08 01:32 35.71583 139.90510 3515 ft 142 kts 215°
2026-05-08 01:32 35.70777 139.89814 3367 ft 142 kts 216°
2026-05-08 01:32 35.69966 139.89111 3185 ft 142 kts 215°
2026-05-08 01:33 35.69153 139.88412 2986 ft 143 kts 215°
2026-05-08 01:33 35.68340 139.87709 2792 ft 143 kts 215°
2026-05-08 01:33 35.67531 139.87009 2616 ft 141 kts 215°
2026-05-08 01:33 35.66735 139.86320 2425 ft 139 kts 214°
2026-05-08 01:34 35.65943 139.85638 2237 ft 138 kts 214°
2026-05-08 01:34 35.65157 139.84960 2053 ft 138 kts 214°
2026-05-08 01:34 35.64380 139.84289 1874 ft 136 kts 214°
2026-05-08 01:34 35.63615 139.83628 1700 ft 137 kts 213°
2026-05-08 01:35 35.62842 139.82962 1516 ft 135 kts 213°
2026-05-08 01:35 35.62074 139.82300 1331 ft 134 kts 213°
2026-05-08 01:35 35.61314 139.81645 1156 ft 133 kts 213°
2026-05-08 01:35 35.60558 139.80993 989 ft 133 kts 213°
2026-05-08 01:36 35.59807 139.80346 806 ft 131 kts 213°
2026-05-08 01:36 35.59055 139.79697 639 ft 132 kts 213°
2026-05-08 01:36 35.58305 139.79052 462 ft 132 kts 213°
2026-05-08 01:36 35.57555 139.78405 280 ft 131 kts 213°
2026-05-08 01:37 35.56817 139.77761 92 ft 131 kts 212°
2026-05-08 01:37 35.56091 139.77139 33 ft 119 kts 214°
2026-05-08 01:37 35.55646 139.76763 31 ft 36 kts 214°
2026-05-08 01:37 35.55441 139.76644 31 ft 31 kts 193°
2026-05-08 01:38 35.55327 139.76618 29 ft 8 kts 192°
2026-05-08 01:38 35.55299 139.76611 29 ft 0 kts 191°
2026-05-08 01:38 35.55296 139.76611 29 ft 0 kts 191°
2026-05-08 01:38 35.55295 139.76611 29 ft 0 kts 191°
2026-05-08 01:39 35.55295 139.76610 29 ft 1 kts 191°
2026-05-08 01:39 35.55267 139.76605 29 ft 9 kts 188°
2026-05-08 01:39 35.55177 139.76596 29 ft 15 kts 180°
2026-05-08 01:39 35.55077 139.76596 29 ft 13 kts 179°
2026-05-08 01:40 35.54985 139.76629 29 ft 15 kts 141°
2026-05-08 01:40 35.54976 139.76740 29 ft 14 kts 64°
2026-05-08 01:40 35.55018 139.76832 29 ft 13 kts 60°
2026-05-08 01:40 35.55057 139.76915 29 ft 12 kts 59°
2026-05-08 01:41 35.55079 139.76978 29 ft 6 kts 95°
2026-05-08 01:41 35.55052 139.77012 29 ft 5 kts 149°
2026-05-08 01:41 35.55039 139.77022 29 ft 0 kts 149°
2026-05-08 01:42 35.54995 139.76957 29 ft 0 kts 150°
2026-05-08 01:42 35.55032 139.77034 29 ft 0 kts 148°
2026-05-08 01:43 35.54995 139.76957 29 ft 0 kts 150°